GFSWCAN_con_mucape_000.txt.gz
CAPE
0 0 0 0 0 0 0 0 0 0 0 0 0 0 0 0 0 0 0 0 0 0 0 0 1 6 35 22 81 81 165 96 55 0 0 0 7 36 275 260 422 189 295 84 161 123 60 299 100 49 1461 1112 1462 1349
0 0 0 0 0 0 0 0 0 0 0 0 0 0 0 0 0 0 0 0 0 0 0 0 0 0 1 18 0 22 35 132 112 140 95 123 133 138 242 89 149 214 287 421 647 719 958 1454 1468 1414 1204 1203 1498 1226
39 0 0 0 0 0 0 0 0 0 0 0 0 0 0 0 0 0 0 0 0 0 0 0 0 0 0 0 0 50 36 88 125 94 2 26 133 15 236 85 155 239 235 482 368 330 747 693 935 843 855 883 937 663
0 0 0 0 0 0 0 0 0 0 0 0 0 0 0 0 0 0 0 0 0 0 0 12 0 0 0 0 0 0 0 3 59 57 2 5 3 0 6 27 26 4 149 117 107 407 40 563 776 940 755 673 514 277
0 0 0 0 0 0 0 0 0 0 0 0 0 0 0 0 0 0 0 0 0 0 0 0 0 0 0 0 0 0 0 0 9 4 11 12 29 13 0 0 5 6 39 127 82 618 409 449 1134 811 634 439 333 116
0 0 0 0 0 0 0 0 0 0 0 0 0 0 0 0 0 0 1 0 0 0 0 0 10 0 0 0 0 0 0 0 0 39 42 37 67 23 0 0 29 132 54 518 308 521 671 432 512 308 286 178 148 127
0 0 0 0 0 0 0 0 0 0 0 0 0 0 0 0 0 2 0 0 0 0 0 1 16 6 0 0 0 0 0 0 0 41 55 42 68 14 0 0 1 96 55 37 132 8 165 28 253 435 308 183 148 130
0 0 0 0 0 0 0 0 0 1 0 0 1 0 0 0 0 0 0 0 0 0 0 11 9 26 28 35 32 2 6 16 14 29 57 101 108 82 4 1 0 10 10 4 34 62 71 1 534 517 485 262 77 73
0 0 0 0 0 0 0 0 0 0 0 0 0 0 0 1 12 48 0 0 0 0 10 21 1 49 70 38 82 94 71 46 23 22 28 60 81 79 17 24 11 4 17 27 12 4 34 0 271 626 621 548 226 68
0 0 0 0 0 0 0 0 0 0 0 0 0 2 69 40 0 0 0 0 0 0 1 13 11 17 20 36 103 222 98 43 51 37 37 94 67 91 46 51 95 120 31 31 77 88 271 643 468 666 646 373 187 52
0 0 0 0 0 0 0 0 0 0 0 1 17 7 7 0 7 44 45 0 42 35 15 9 15 25 20 22 90 141 193 111 87 64 44 35 37 85 167 225 344 141 70 170 77 197 370 708 867 651 452 298 206 54
0 0 0 0 0 0 0 0 0 0 0 0 0 0 4 15 47 50 56 48 32 32 27 21 64 57 15 52 186 173 169 119 33 42 41 52 119 227 38 113 199 195 186 272 166 173 234 720 946 740 526 316 310 104
0 0 0 0 0 0 0 0 0 0 0 10 18 4 26 30 10 0 0 31 65 49 53 83 124 32 160 53 105 209 140 62 77 115 96 78 386 127 68 46 229 172 53 85 162 96 195 985 1037 799 488 201 284 28
0 0 0 0 0 0 0 0 0 0 0 17 1 0 0 0 0 44 50 66 67 53 48 2 47 100 344 189 112 40 93 189 164 85 72 411 492 416 823 166 292 114 162 45 140 408 942 1003 840 649 430 164 313 1
0 0 0 0 0 0 0 0 0 3 8 5 12 0 0 27 14 9 4 8 43 31 22 18 24 169 172 147 129 50 62 66 101 201 278 303 400 350 881 920 938 445 250 865 971 925 856 723 409 226 156 60 20 13
0 0 0 0 0 0 0 0 0 4 11 1 0 0 20 27 8 0 9 27 21 21 27 82 31 10 4 70 67 47 82 49 0 263 356 234 172 352 892 879 847 986 1145 1253 869 551 265 106 53 40 65 2 26 65
0 0 0 0 0 0 0 0 27 8 2 0 1 0 0 6 9 0 0 0 6 23 72 0 0 0 0 42 103 135 127 5 44 266 235 312 319 537 457 532 634 667 617 379 204 61 14 11 9 1 13 35 8 12
0 0 0 0 0 6 22 1 15 0 0 0 0 13 15 14 0 5 25 31 31 39 0 0 0 0 0 0 1 0 0 0 25 32 225 279 397 357 451 231 122 105 63 59 95 16 8 15 22 13 2 19 0 0
4 13 0 0 0 0 7 0 3 0 0 3 1 0 12 35 30 27 39 51 32 5 0 0 0 0 0 5 0 0 0 0 0 0 65 193 243 62 42 31 14 10 112 22 12 3 4 7 0 0 0 0 0 0
10 0 0 0 0 18 0 1 0 0 0 4 4 24 27 30 7 8 2 0 0 2 1 0 0 0 0 0 0 0 1 0 12 3 5 25 2 2 24 35 1 1 5 7 11 1 0 0 0 0 0 0 0 33
0 4 0 0 12 5 2 4 6 7 11 8 49 15 0 2 0 1 2 0 0 0 0 0 0 0 0 0 0 13 9 3 31 12 10 11 0 0 0 0 0 0 0 0 0 0 0 0 0 75 5 0 107 29
9 0 16 0 7 1 0 2 1 10 5 25 13 0 0 0 0 0 0 0 0 0 0 0 0 0 0 0 0 0 0 5 1 0 0 0 0 0 0 0 0 0 0 0 0 0 0 0 0 49 56 61 82 23
0 0 9 0 0 0 0 12 2 8 0 0 1 0 0 0 0 0 0 0 0 0 0 0 0 0 0 0 0 0 0 0 0 0 1 0 0 0 0 0 0 0 0 0 0 1 0 0 0 0 4 1 10 0
0 3 0 9 7 0 2 0 0 0 0 0 0 0 0 0 0 0 0 0 0 0 0 0 0 0 0 0 0 0 0 0 0 0 0 0 0 0 0 0 0 0 0 0 0 0 1 1 1 3 3 0 6 2
0 0 0 0 0 0 0 0 0 0 0 0 0 0 0 0 0 0 0 0 0 0 0 0 0 0 0 0 0 0 0 0 0 0 0 0 0 0 0 0 0 0 2 0 0 0 0 0 0 0 9 6 5 3
0 0 0 0 0 0 0 0 0 0 0 0 0 0 0 0 0 0 0 0 0 0 0 0 0 0 0 0 0 0 0 0 1 0 0 4 0 0 0 1 1 0 0 0 0 0 0 1 17 2 0 0 0 0
0 0 0 0 0 0 0 0 0 0 0 0 0 0 0 0 0 0 0 0 0 0 0 0 0 0 0 0 0 0 1 0 0 2 1 3 6 12 17 24 17 10 18 27 21 15 13 9 9 0 0 0 0 0
0 0 0 0 0 0 0 0 0 0 0 0 0 0 0 0 0 0 0 0 0 0 0 0 0 0 0 0 1 0 0 0 3 0 0 0 0 0 0 0 0 0 1 1 11 13 9 6 2 1 0 0 1 2
0 0 0 0 0 0 0 0 0 0 0 0 0 0 0 0 0 0 0 0 4 0 0 0 0 0 0 0 0 0 0 0 0 0 0 0 0 0 0 0 0 0 0 0 0 0 0 0 0 0 0 0 0 1
0 0 0 0 0 0 0 0 0 0 0 0 0 0 0 4 22 14 15 11 10 5 2 4 3 0 0 0 0 0 0 0 0 0 0 0 0 0 0 0 0 0 0 0 0 0 0 0 0 0 3 17 20 4
0 0 0 0 0 0 0 0 10 0 0 0 11 0 0 24 16 16 17 19 23 24 22 14 7 15 11 5 1 0 0 0 0 0 0 0 0 0 0 0 0 1 1 1 1 4 0 5 12 11 10 6 1 5
0 0 0 0 0 27 39 45 41 8 31 22 22 44 26 58 2 36 32 31 35 31 11 38 32 35 27 18 5 0 0 0 0 0 0 1 5 3 10 7 8 3 3 2 5 14 18 18 19 22 22 3 0 28
75 54 41 49 52 54 53 37 47 58 49 57 44 46 46 58 49 56 33 45 53 41 41 48 42 35 25 32 21 2 0 0 0 0 0 0 0 0 0 0 0 0 0 1 6 16 22 26 21 25 19 25 22 0

GFSWCAN_con_mucape_003.txt.gz
CAPE
0 0 0 0 0 0 0 0 0 0 0 0 0 0 0 0 0 0 0 0 0 0 0 0 0 0 32 11 38 38 59 82 65 0 0 0 0 0 4 21 18 0 0 0 7 19 0 1548 727 706 1525 1194 1436 1115
0 0 0 0 0 0 0 0 0 0 0 0 0 0 0 0 0 0 0 0 0 0 0 0 0 0 0 5 7 36 25 52 145 74 6 17 49 147 249 204 265 137 184 378 192 536 1112 1139 1415 1328 1385 1037 995 1242
16 0 0 0 0 0 0 0 0 0 0 0 0 0 0 0 0 0 0 0 0 0 0 0 0 0 0 0 0 5 62 49 110 54 10 15 159 55 88 78 160 59 154 350 279 210 258 555 744 618 1002 904 591 526
13 0 0 0 0 0 0 0 0 0 0 0 0 0 0 0 0 0 0 0 0 0 0 0 0 0 0 0 0 0 3 0 0 35 33 6 7 7 35 59 0 12 62 18 92 101 45 33 308 212 135 340 362 299
24 0 0 0 0 0 0 0 0 0 0 0 0 0 0 0 0 0 0 0 0 0 0 0 0 0 0 0 0 0 0 6 4 18 20 25 50 22 1 0 0 0 24 37 34 300 8 206 250 298 226 217 210 206
20 0 0 0 0 0 0 0 0 0 0 0 0 0 0 0 0 0 0 0 0 0 0 0 0 0 0 0 0 0 0 43 57 2 1 20 150 32 0 0 171 188 291 244 45 217 444 182 162 146 60 77 134 90
9 0 0 0 0 0 0 0 0 0 0 0 0 0 0 0 0 0 0 0 0 0 0 0 0 67 15 18 0 0 0 1 13 3 1 2 15 24 0 0 0 1 37 221 28 43 67 113 86 165 94 144 73 41
0 0 0 0 0 0 0 0 0 0 0 0 2 0 0 0 0 0 0 0 0 0 0 0 0 21 23 47 96 3 0 0 7 0 0 0 9 26 0 0 0 4 1 0 6 18 93 169 362 384 163 126 88 49
0 0 0 0 0 0 0 0 0 0 0 0 0 0 0 0 2 14 0 0 0 0 0 11 0 16 35 62 126 165 114 6 0 0 0 0 0 31 17 0 0 0 0 3 0 83 73 45 118 351 157 104 69 50
0 0 0 0 0 0 0 0 0 0 0 0 0 4 7 96 1 0 0 1 0 0 0 0 0 0 8 2 106 196 133 42 0 0 0 0 0 0 0 11 41 25 12 35 1 71 9 0 230 218 233 159 125 51
0 0 0 0 0 0 0 0 0 0 0 0 3 9 5 4 1 14 43 19 45 5 1 0 0 2 10 22 43 107 83 155 21 11 1 9 3 0 1 29 36 127 86 41 47 77 168 99 44 12 89 178 112 77
0 0 0 0 0 0 0 0 0 0 0 0 0 0 0 20 41 27 58 36 21 35 24 8 59 119 50 134 106 168 107 89 18 86 81 5 57 70 164 47 64 151 71 52 59 44 285 234 160 65 298 278 164 51
0 0 0 0 0 0 0 0 0 0 0 1 1 2 19 68 2 0 0 32 82 123 155 81 181 195 213 134 19 167 120 52 133 90 67 116 138 214 194 381 217 63 137 107 10 20 78 488 394 227 297 253 127 13
0 0 0 0 0 0 0 0 0 0 0 3 2 0 0 0 0 13 32 0 33 24 46 0 24 189 196 210 180 4 70 117 121 77 73 102 151 209 173 259 467 327 96 59 9 17 87 556 428 336 282 161 28 9
0 0 0 0 0 0 0 0 0 0 0 18 3 0 0 0 20 4 3 12 41 17 13 10 20 208 192 132 167 51 28 45 53 13 0 109 160 6 75 151 331 231 599 452 27 628 723 512 414 342 141 73 8 20
0 0 0 0 0 0 0 0 0 0 2 0 1 0 12 21 13 14 21 19 27 18 21 118 10 2 0 20 47 29 48 19 0 0 14 62 41 70 67 206 165 5 65 735 653 527 361 301 199 153 84 32 2 3
0 0 3 0 0 0 0 0 9 8 0 0 0 5 1 38 32 2 5 21 50 19 75 25 0 0 0 0 41 92 4 0 0 2 29 36 10 38 67 145 148 103 148 253 186 154 80 45 44 24 4 1 0 10
0 1 0 0 0 0 0 0 6 0 0 0 0 7 3 42 61 64 52 60 46 78 67 0 0 0 0 0 0 0 0 0 0 0 0 5 0 60 110 49 123 117 49 54 35 15 12 9 13 8 2 3 42 30
0 9 0 0 0 0 18 0 2 0 0 0 2 10 31 65 28 0 0 12 38 0 0 0 0 0 0 5 4 0 0 0 0 0 0 0 35 41 40 19 19 14 29 16 19 17 12 3 14 5 0 2 4 3
29 2 0 0 0 0 0 1 7 0 0 16 41 39 13 0 0 0 6 0 5 0 0 0 0 0 0 0 0 0 1 6 11 2 0 18 7 34 0 0 3 35 15 9 2 0 0 0 0 0 0 0 0 0
0 0 0 0 0 0 1 2 10 19 9 10 16 0 0 0 0 0 0 0 0 0 0 0 0 0 0 0 0 0 4 2 1 7 0 0 0 0 0 0 0 0 2 0 0 0 0 0 0 0 0 0 0 0
3 0 0 0 3 1 0 1 8 12 0 16 0 0 0 0 0 0 0 0 0 0 0 0 0 0 0 0 0 0 1 4 0 0 0 0 0 0 0 1 0 0 0 0 0 0 0 0 0 0 0 0 6 2
0 0 6 3 0 0 0 3 3 20 0 1 0 0 0 0 0 0 0 0 0 0 0 0 0 0 0 0 0 0 0 0 0 0 0 0 0 0 0 0 0 0 0 0 0 0 0 0 0 4 18 2 3 1
0 2 8 13 3 0 2 7 0 0 0 0 0 0 0 0 0 0 0 0 0 0 0 0 0 0 0 0 0 0 0 0 0 0 0 0 0 0 0 0 0 0 0 0 0 0 0 0 6 5 1 0 0 0
0 0 0 0 0 0 0 0 0 0 0 0 0 0 0 0 0 0 0 0 0 0 0 0 0 0 0 0 0 0 0 0 0 0 0 0 0 0 0 0 0 2 2 0 0 0 0 0 0 3 0 0 0 0
0 0 0 0 0 0 0 0 0 0 0 0 0 0 0 0 0 0 0 0 0 0 0 0 0 0 0 0 0 0 0 0 0 0 0 1 1 2 0 0 0 0 3 0 0 0 0 0 1 0 0 0 0 0
0 0 0 0 0 0 0 0 0 0 0 0 0 0 0 0 0 0 0 0 0 0 0 0 0 0 0 0 0 0 1 1 0 6 3 4 6 21 23 18 13 11 15 24 13 8 3 5 0 0 0 0 0 0
0 0 0 0 0 0 0 0 0 0 0 0 0 0 0 0 0 0 0 0 2 0 1 12 0 0 0 0 0 7 18 13 4 6 11 10 3 3 3 2 8 4 8 18 17 16 12 4 0 0 0 0 0 0
0 0 0 0 0 0 0 0 0 0 0 0 0 0 0 0 0 0 0 0 11 29 20 0 0 0 0 0 0 0 0 0 0 0 0 0 0 0 0 0 0 0 0 0 0 0 0 0 0 0 0 0 9 12
0 0 0 0 0 0 0 0 0 0 15 9 3 0 0 1 7 3 4 14 39 37 22 2 0 0 0 0 0 0 0 0 0 0 0 0 0 0 0 0 0 0 0 0 0 0 0 0 0 0 2 6 10 0
42 0 0 0 0 0 0 34 41 30 26 11 19 0 0 13 38 41 42 50 37 20 15 1 3 9 4 4 1 0 0 0 0 1 0 0 0 1 3 4 0 0 1 2 5 6 3 6 11 12 12 12 20 13
36 37 0 0 0 15 33 25 25 9 34 25 9 16 38 25 0 46 71 58 36 32 10 26 31 14 3 0 0 0 0 0 0 0 0 0 0 0 1 2 1 0 0 1 6 0 1 1 1 3 2 5 11 12
51 18 38 0 0 23 50 64 62 48 39 48 52 61 61 53 31 71 57 61 56 45 45 56 37 38 87 16 1 0 0 0 0 0 0 0 0 0 0 0 0 0 0 0 1 2 3 4 1 1 1 1 0 0

GFSWCAN_con_mucape_006.txt.gz
CAPE
0 0 0 0 0 0 0 0 0 0 0 0 0 0 0 0 0 0 0 0 0 0 0 0 0 0 0 0 0 1 37 77 47 10 0 0 0 0 0 0 26 0 0 1 0 1 0 614 960 587 1148 1242 796 487
0 0 0 0 0 0 0 0 0 0 0 0 0 0 0 0 0 0 0 0 0 0 0 0 0 0 0 0 0 0 35 29 94 66 13 2 23 5 43 60 15 4 32 72 183 95 459 537 1061 1101 926 1213 929 675
6 1 1 0 0 0 0 0 0 0 0 0 0 0 0 0 0 0 0 0 0 0 0 0 0 0 0 0 0 0 43 70 75 52 32 13 26 12 47 21 37 42 83 145 131 92 153 245 770 676 507 520 886 687
37 15 15 0 0 0 0 0 0 0 0 0 0 0 0 0 0 0 0 0 0 0 0 0 0 0 0 0 0 0 2 1 6 14 40 45 52 1 29 18 9 34 56 30 94 89 95 192 120 424 282 186 334 412
15 18 1 0 0 0 0 0 0 0 0 0 0 0 0 0 0 0 0 0 0 0 0 0 0 0 0 0 0 0 0 6 32 1 13 55 55 19 1 24 47 29 38 23 32 183 53 34 236 158 152 215 235 261
9 22 0 0 0 0 0 0 0 0 0 0 0 0 0 0 0 0 0 0 0 0 0 0 0 0 0 0 0 0 0 0 0 1 5 23 9 1 16 3 186 274 184 168 137 343 259 122 28 149 184 155 155 225
1 15 0 0 0 0 0 0 0 0 0 0 0 0 0 0 0 0 0 0 0 0 0 0 0 34 22 6 0 0 0 0 0 0 0 0 76 60 3 1 97 123 166 113 78 126 96 169 147 141 78 65 76 70
0 0 0 0 0 0 0 0 0 0 0 0 0 0 0 0 0 0 0 0 0 0 0 0 0 34 34 46 60 0 0 0 0 0 1 2 3 74 2 0 0 0 158 138 42 18 105 228 149 160 111 91 48 31
0 0 0 0 0 0 0 0 0 0 0 0 0 0 0 0 0 0 0 0 0 0 0 0 0 8 6 8 66 147 133 41 0 0 0 0 0 2 0 0 0 2 8 0 0 0 39 182 262 199 121 83 54 21
0 0 0 0 0 0 0 0 0 0 0 0 1 0 0 15 11 0 0 0 0 0 0 0 0 0 0 0 26 50 58 75 33 0 0 0 0 0 0 0 0 0 2 2 18 25 39 42 46 303 209 148 85 15
0 0 0 0 0 0 0 0 0 0 0 1 1 0 3 14 0 0 1 0 0 1 0 0 0 0 1 0 0 2 34 35 47 13 0 0 0 0 0 0 0 0 22 12 31 20 28 7 81 255 260 224 106 66
0 0 0 0 0 0 0 0 0 0 0 0 0 0 0 0 2 1 0 0 0 13 6 3 13 5 2 3 0 9 25 15 1 12 18 4 40 111 95 124 204 131 26 37 19 37 52 92 90 309 310 156 122 131
0 0 0 0 0 0 0 0 0 0 0 0 0 0 0 1 0 0 0 20 31 38 26 14 0 8 1 0 2 2 3 3 8 27 37 26 31 32 35 46 105 166 154 43 41 42 227 182 92 141 272 185 173 157
9 0 0 0 0 0 0 0 0 0 0 0 0 0 0 0 0 1 0 0 0 0 0 0 0 0 0 1 6 4 0 0 5 27 37 1 0 0 0 6 59 183 282 106 65 34 246 258 276 316 220 220 199 180
0 0 0 0 0 0 0 0 0 0 0 1 3 0 0 1 0 3 3 0 0 0 0 1 2 7 3 11 12 9 0 38 0 0 0 0 0 0 0 1 5 56 171 188 106 33 301 335 241 142 156 222 170 93
0 0 0 0 0 0 0 0 0 0 0 0 0 1 0 0 4 12 16 5 4 4 12 11 0 0 0 0 0 11 21 14 0 0 0 0 0 0 0 0 11 46 170 341 217 215 332 232 113 74 78 71 83 52
0 0 0 0 0 0 0 0 0 0 0 0 0 0 0 0 5 2 12 13 9 4 13 0 0 0 0 0 0 3 2 1 0 0 0 0 0 0 0 32 58 24 69 148 258 267 170 82 53 50 51 40 2 2
0 0 0 0 0 0 0 0 0 0 0 0 0 0 6 62 43 25 13 14 33 30 0 0 0 0 0 0 0 0 0 0 0 0 0 1 0 3 56 65 64 20 8 39 44 25 30 44 43 37 29 2 2 1
0 0 0 0 0 0 0 0 0 0 0 0 1 26 41 13 1 0 3 0 2 0 0 0 0 0 0 0 0 0 0 1 17 3 0 1 12 18 35 11 28 17 3 8 10 13 14 5 0 0 6 4 8 10
23 0 0 0 0 0 0 0 0 0 0 0 14 0 1 0 0 1 5 3 3 0 0 0 0 0 0 0 0 0 2 11 3 0 0 0 17 5 2 30 11 17 6 7 1 1 0 0 0 0 0 0 5 0
0 0 0 0 0 0 0 0 0 2 0 0 0 0 0 6 0 0 0 0 0 0 0 0 0 0 0 0 0 0 0 5 0 0 0 0 0 0 6 10 7 10 7 3 0 0 0 0 0 0 0 0 0 0
0 0 0 0 0 0 0 0 0 1 0 0 0 0 0 0 0 0 0 0 0 0 0 0 0 0 0 0 0 3 0 0 0 0 1 0 0 0 0 0 2 1 0 0 0 0 0 0 0 0 0 0 1 10
0 0 0 0 0 0 0 0 0 0 0 0 0 0 0 0 0 0 0 0 0 0 0 0 0 0 0 0 0 0 0 0 0 0 0 0 0 0 0 0 0 0 0 0 0 0 0 0 0 0 5 16 8 2
0 0 0 4 0 0 0 0 0 0 0 0 0 0 0 0 0 0 0 0 0 0 0 0 0 0 0 0 0 0 0 0 0 0 0 0 0 0 0 0 0 0 0 9 0 0 0 0 8 4 1 0 3 0
0 0 0 0 0 0 0 0 0 0 0 0 0 0 0 0 0 0 0 0 0 0 0 0 0 0 0 0 0 0 0 0 0 0 0 0 0 0 0 0 0 8 17 3 0 0 10 12 7 8 4 0 0 0
0 0 0 0 0 0 0 0 0 0 0 0 0 0 0 0 0 0 0 0 0 0 0 0 0 0 0 0 0 0 0 0 0 0 0 0 0 0 0 0 0 0 1 3 4 0 0 1 1 0 0 0 0 0
0 0 0 0 0 0 0 0 0 0 0 0 0 0 0 0 0 0 0 0 0 0 0 0 0 0 0 31 0 1 11 0 0 0 4 7 11 9 1 3 5 10 9 7 2 3 1 0 0 0 0 0 0 0
0 0 0 0 0 0 0 0 0 0 0 0 0 0 0 0 0 0 0 0 0 0 2 17 21 10 4 5 4 2 1 1 0 0 1 6 10 3 1 2 6 8 6 1 0 0 0 0 0 0 0 0 0 0
0 0 0 0 0 0 0 0 0 0 0 0 0 0 0 0 3 1 0 0 0 0 0 0 0 0 10 23 25 14 1 0 0 0 0 0 0 0 0 0 0 0 0 0 0 0 0 0 0 0 0 0 0 0
0 0 0 0 0 0 0 0 0 0 0 0 0 0 0 1 2 2 2 2 0 0 0 0 0 0 0 0 0 0 0 0 0 0 0 0 0 0 0 0 0 0 0 0 0 0 0 0 0 0 0 0 1 3
0 0 0 0 0 0 0 23 36 31 9 0 7 0 0 0 5 4 5 4 0 0 0 0 0 0 0 0 0 0 0 0 0 0 0 0 0 0 0 0 0 0 0 0 0 0 2 0 3 5 4 5 8 12
0 0 0 0 0 0 13 25 23 0 13 7 0 0 0 0 0 25 18 3 0 0 0 0 0 0 0 0 0 0 0 0 0 0 0 0 0 0 0 0 0 0 0 0 0 0 0 0 0 0 0 0 1 1
0 0 0 0 0 0 42 24 6 4 15 32 44 32 16 7 4 22 23 30 25 18 14 5 3 5 0 0 0 0 0 0 0 0 0 0 0 0 0 0 0 0 0 0 0 0 0 0 0 0 0 1 0 0

GFSWCAN_con_mucape_009.txt.gz
CAPE
0 0 0 0 0 0 0 0 0 0 0 0 0 0 0 0 0 0 0 0 0 0 0 0 0 0 0 0 0 0 0 18 39 16 0 0 0 0 0 0 3 0 0 0 0 0 0 563 587 435 1041 1161 478 975
0 0 0 0 0 0 0 0 0 0 0 0 0 0 0 0 0 0 0 0 0 0 0 0 0 0 0 0 0 0 0 0 45 45 3 4 38 2 16 0 0 0 0 0 40 0 394 1117 1112 1057 1197 1064 669 624
7 7 3 0 0 0 0 0 0 0 0 0 0 0 0 0 0 0 0 0 0 0 0 0 0 0 0 0 0 0 0 0 6 61 44 29 54 15 30 22 37 8 126 167 79 113 251 778 742 705 1107 1085 777 623
25 26 17 16 0 0 0 0 0 0 0 0 0 0 0 0 0 0 0 0 0 0 0 0 0 0 0 0 0 0 0 0 0 24 61 54 55 17 41 28 7 55 72 144 121 102 161 665 624 514 715 826 812 780
31 17 10 20 0 0 0 0 0 0 0 0 0 0 0 0 0 0 0 0 0 0 0 0 0 0 0 0 0 0 0 0 0 0 6 65 52 48 33 24 59 47 75 80 91 126 80 207 195 146 124 287 410 288
45 16 20 0 0 0 0 0 0 0 0 0 0 0 0 0 0 0 0 0 0 0 0 0 0 0 0 0 0 0 0 0 0 0 0 1 17 29 29 29 124 147 119 140 162 246 220 275 226 151 219 291 269 278
36 18 15 10 0 0 0 0 0 0 0 0 0 0 0 0 0 0 0 0 0 0 0 0 0 11 13 12 0 0 1 0 0 0 0 0 24 36 18 18 91 134 176 194 328 321 272 206 65 299 329 308 340 389
25 20 12 0 0 0 0 0 0 0 0 0 0 0 0 0 0 0 0 0 0 0 0 0 0 9 3 1 10 5 4 0 0 0 1 10 4 34 0 1 2 16 11 213 238 151 87 58 122 265 217 189 216 230
0 20 0 0 0 0 0 0 0 0 0 0 0 0 0 0 0 6 0 0 0 0 0 0 0 4 0 1 1 35 20 0 0 0 0 7 0 0 0 1 2 5 185 117 73 43 127 246 283 323 265 206 175 117
0 0 0 0 0 0 0 0 0 0 0 0 0 0 0 3 24 7 0 6 0 0 0 0 0 0 0 0 0 0 8 54 73 36 9 0 0 0 40 1 16 1 200 0 0 0 38 68 198 277 227 215 144 78
0 0 0 0 0 0 0 0 0 0 0 1 0 0 2 13 0 0 0 0 0 0 0 0 0 0 0 0 0 0 35 29 11 15 11 0 15 21 9 28 35 62 9 0 1 0 16 7 33 169 252 192 189 113
0 0 0 0 0 0 0 0 0 0 0 0 0 0 0 0 0 0 0 1 0 11 11 2 18 19 6 4 0 0 25 33 9 38 53 6 85 33 21 25 77 71 66 44 0 0 6 15 7 10 147 178 203 82
0 0 8 0 0 0 0 0 0 0 0 0 0 0 0 0 0 0 0 7 10 37 28 25 0 6 6 3 0 0 2 5 4 42 51 126 60 23 16 9 9 14 68 110 39 0 1 27 19 79 192 178 113 93
0 13 3 0 0 0 0 0 0 0 0 0 0 0 0 0 0 0 0 0 0 0 0 0 0 0 3 4 11 15 0 0 22 35 9 19 8 10 4 3 2 4 30 110 101 9 94 94 124 184 263 198 185 125
0 13 0 0 0 0 0 0 0 0 0 0 0 0 0 3 2 0 0 0 0 0 0 0 0 1 2 4 18 12 0 22 2 0 0 0 0 3 0 0 0 1 62 97 157 54 106 130 152 175 197 175 147 116
0 2 0 0 0 0 0 0 0 0 0 0 0 0 0 0 7 5 9 15 10 5 12 7 0 0 0 0 0 0 0 5 0 0 0 0 0 0 0 0 0 34 48 111 160 137 298 292 169 97 55 66 77 102
0 0 0 0 0 0 0 0 0 0 0 0 0 0 0 0 0 2 26 37 35 16 1 1 0 0 0 0 0 0 0 0 0 0 0 0 0 0 0 50 94 5 36 96 180 351 231 46 27 0 1 28 48 67
0 0 0 0 0 0 0 0 0 0 0 0 0 30 28 22 28 31 18 3 6 16 20 0 0 0 0 0 0 0 0 0 0 0 1 1 0 1 18 55 42 9 1 45 79 132 140 49 18 7 20 38 28 27
0 0 0 0 0 0 0 0 0 0 0 6 21 19 28 6 1 0 1 2 11 6 0 0 0 0 0 0 0 0 0 0 14 8 9 14 18 17 4 22 26 19 17 29 33 43 41 39 34 32 24 7 26 0
0 0 0 0 0 0 0 0 0 0 0 0 0 0 0 0 0 0 7 10 0 4 0 0 0 0 0 0 0 0 7 11 10 0 8 8 10 4 13 31 4 17 32 23 11 7 12 11 12 6 5 5 2 3
0 0 0 0 0 0 0 0 0 0 0 0 0 0 0 2 0 0 0 0 0 0 0 0 0 0 0 0 0 0 0 0 0 0 0 0 0 6 13 0 0 5 0 1 3 0 0 0 0 0 0 0 0 0
0 0 0 0 0 0 0 0 0 0 0 0 0 0 0 0 0 0 0 0 0 0 0 0 0 0 0 0 1 5 2 0 0 0 0 0 0 0 5 3 4 0 8 0 3 3 0 0 0 0 0 0 0 0
0 0 0 0 0 0 0 0 0 0 0 0 0 0 0 0 0 0 0 0 0 0 0 0 0 0 0 0 0 0 0 0 0 0 0 1 0 0 0 0 0 0 0 0 0 0 0 0 2 3 4 0 0 0
0 0 0 0 0 0 0 0 0 0 0 0 0 0 0 0 0 0 0 0 0 0 0 0 0 0 0 0 0 0 0 0 0 0 0 0 0 0 0 0 0 0 3 13 0 19 6 21 16 9 3 0 0 1
0 0 0 0 0 0 0 0 0 0 0 0 0 0 0 0 0 0 0 0 0 0 0 0 0 0 0 0 0 0 4 0 0 0 0 0 0 0 0 0 0 17 0 0 0 0 0 6 3 8 0 0 0 0
0 0 0 0 0 0 0 0 0 0 0 0 0 0 0 0 0 0 0 0 0 0 0 0 0 0 0 0 0 0 0 0 9 0 0 5 5 0 0 0 0 0 0 0 0 0 1 0 0 0 0 0 0 0
0 0 0 0 0 0 0 0 0 0 0 0 0 0 0 0 0 0 0 0 0 0 0 0 0 0 0 0 0 28 0 0 0 4 9 8 6 6 4 0 0 1 6 3 0 0 0 0 0 0 0 0 0 0
0 0 0 0 0 0 0 0 0 0 0 0 0 0 0 0 0 0 0 0 0 16 0 0 0 0 8 6 7 3 0 0 0 1 0 1 8 14 11 5 5 4 0 0 0 0 0 0 0 0 0 0 0 0
0 0 0 0 0 0 0 0 0 0 0 0 0 0 0 0 0 0 0 0 0 0 0 0 4 4 3 1 0 0 0 0 0 0 0 0 0 0 0 0 0 0 0 0 0 0 0 0 0 0 0 0 0 1
0 0 0 0 0 0 0 0 0 0 0 0 0 0 0 0 0 0 0 0 0 0 0 0 0 0 0 0 0 0 0 0 0 0 0 0 0 0 0 0 0 0 0 0 0 0 0 0 0 0 1 3 10 6
0 0 0 0 0 0 0 0 0 3 3 0 1 0 0 0 0 0 0 0 0 0 0 0 0 0 0 0 0 0 0 0 0 0 0 0 0 0 0 0 0 0 0 0 0 0 0 2 1 4 5 1 1 1
0 0 0 0 0 11 6 0 0 0 0 0 0 0 0 0 0 4 8 5 0 0 0 0 0 0 0 0 0 0 0 0 0 0 0 0 0 0 0 0 0 0 0 0 0 0 0 0 0 0 0 0 0 0
0 0 0 0 0 0 13 15 0 0 0 0 1 11 7 6 1 13 18 14 4 1 0 0 0 0 0 0 0 0 0 0 0 0 0 0 0 0 0 0 0 0 0 0 0 0 0 0 0 0 0 0 0 0

GFSWCAN_con_mucape_015.txt.gz
CAPE
0 0 0 0 0 0 0 0 0 0 0 0 0 0 0 0 0 0 0 0 0 0 0 0 0 0 0 0 0 0 0 0 0 16 1 0 0 0 0 3 0 0 0 0 0 2 84 612 964 583 978 1593 1158 1194
35 0 0 0 0 0 0 0 0 0 0 0 0 0 0 0 0 0 0 0 0 0 0 0 0 0 0 0 0 0 0 0 0 0 0 0 10 11 21 30 4 50 0 0 0 0 429 586 899 794 1149 1215 1101 1207
50 6 41 53 42 0 0 0 0 0 0 0 0 0 0 0 0 0 0 0 0 0 0 0 0 0 0 0 0 0 0 0 1 0 0 0 3 0 92 69 47 48 95 515 406 285 489 585 893 942 1018 1184 1024 938
39 43 2 20 17 19 6 0 0 0 0 0 0 0 0 0 0 0 0 0 0 0 0 0 0 0 0 0 0 0 0 0 0 8 6 3 0 0 10 26 19 53 85 286 421 349 345 456 643 709 925 987 747 687
34 31 33 25 21 25 21 0 0 0 0 0 0 0 0 0 0 0 0 0 0 0 0 0 0 0 0 0 0 0 0 0 0 0 8 15 21 29 8 20 34 44 126 390 409 212 419 360 423 578 763 801 625 639
36 29 33 34 18 18 0 0 0 0 0 0 0 0 0 0 0 0 0 0 0 0 0 0 0 0 0 0 0 0 0 0 0 0 2 0 0 31 80 60 24 84 74 70 165 140 286 342 402 332 354 294 428 502
31 32 31 26 5 14 0 0 0 0 0 0 0 0 0 0 0 0 0 0 0 0 0 0 0 0 0 0 0 0 0 0 0 0 2 0 14 6 54 27 38 54 24 47 100 162 289 260 276 284 286 202 223 215
0 0 34 25 9 8 0 0 0 0 0 0 0 0 0 0 0 0 0 0 0 0 0 0 0 0 4 10 19 0 0 0 0 0 0 0 9 73 12 17 19 4 1 49 49 167 148 130 252 273 178 211 206 278
0 0 37 20 10 0 0 0 0 0 0 0 0 0 0 0 0 4 1 0 0 0 0 0 0 24 0 0 5 45 9 2 0 0 0 0 0 47 24 84 59 39 14 30 31 122 168 195 318 312 254 108 153 215
0 0 0 2 12 0 0 0 0 0 0 0 0 0 0 1 6 0 0 0 0 0 0 0 0 0 0 0 2 17 8 79 65 1 0 0 0 32 72 54 23 7 32 73 50 280 201 128 172 391 404 345 262 286
0 0 0 0 0 0 0 0 0 0 0 2 1 0 0 0 0 0 0 0 0 0 0 0 0 0 0 16 25 0 28 34 81 38 5 8 4 109 29 53 39 18 3 20 84 38 9 0 36 36 352 415 334 341
0 0 0 0 0 0 0 0 0 0 0 0 0 0 0 0 0 0 0 0 0 0 22 20 22 3 0 1 38 11 42 24 41 32 87 18 165 102 61 64 81 85 81 37 29 100 76 64 0 0 112 522 465 317
35 0 0 0 0 0 0 0 0 0 0 0 0 0 0 0 0 0 0 0 3 47 74 70 35 34 17 10 22 20 38 61 3 93 84 154 119 64 73 9 68 82 88 94 50 82 107 133 15 1 133 325 431 265
20 0 0 0 0 0 0 0 0 0 0 0 0 0 0 0 0 0 0 11 0 47 45 7 0 20 10 84 82 27 29 30 52 56 36 4 2 4 3 2 4 60 58 30 17 10 66 110 15 20 124 228 287 344
17 0 0 0 0 0 0 0 0 0 0 0 0 0 0 0 0 1 0 1 0 0 0 2 1 0 44 35 60 51 42 24 26 0 0 1 0 0 1 1 0 22 43 17 0 0 42 50 115 363 315 356 379 298
0 0 0 0 0 0 0 0 0 0 0 0 0 0 0 0 0 0 0 0 0 0 0 0 1 0 0 3 2 17 27 0 0 0 0 0 0 7 3 0 0 1 3 7 25 35 93 257 133 202 273 218 213 182
0 0 0 0 0 0 0 0 0 0 0 0 0 0 0 0 0 0 15 10 3 22 26 8 0 0 0 0 0 2 5 0 0 0 0 0 0 5 0 0 6 20 63 51 103 126 77 146 199 136 123 82 81 86
0 0 0 0 0 0 0 0 0 0 0 0 6 35 12 18 21 12 6 1 18 41 27 48 33 0 0 0 0 0 0 0 0 0 0 6 6 4 13 37 100 43 41 43 78 53 74 52 45 61 74 54 55 70
0 0 0 0 0 0 0 0 0 0 0 5 3 2 3 1 0 0 0 4 8 1 6 6 0 0 0 0 0 0 0 0 0 2 1 0 0 2 5 18 25 43 29 145 54 36 35 39 44 33 20 22 13 17
0 0 0 0 0 0 0 0 0 0 0 0 0 0 0 0 0 16 12 3 3 15 3 0 0 0 0 0 0 0 0 0 0 0 0 1 0 0 0 12 12 46 34 13 18 28 6 3 0 0 0 35 18 17
0 0 0 0 0 0 0 0 0 0 0 0 0 0 0 5 24 0 0 0 0 0 0 0 0 0 0 0 0 0 0 0 0 0 0 0 0 36 0 2 33 35 34 36 40 29 34 47 40 42 34 24 20 2
0 0 0 0 0 0 0 0 0 0 0 0 0 2 0 0 0 0 0 0 0 0 0 0 0 0 0 0 0 0 0 0 0 0 0 0 0 0 0 0 8 12 19 24 19 30 25 14 6 1 2 0 0 1
0 0 0 0 0 0 0 0 0 0 0 0 0 0 0 0 0 0 0 0 0 0 0 1 3 1 0 0 0 0 0 0 0 0 0 0 0 0 2 6 3 3 0 0 5 3 0 5 4 3 0 0 0 0
0 0 0 0 0 0 0 0 0 0 0 0 0 0 0 0 0 0 0 0 0 0 0 0 0 0 0 0 0 0 0 0 0 0 0 0 0 0 0 0 0 0 5 7 1 0 0 0 0 0 0 0 1 2
0 0 0 0 0 0 0 0 0 0 0 0 0 0 0 0 0 0 0 0 0 0 0 0 0 0 0 0 0 0 0 0 0 0 0 0 0 0 3 17 18 15 1 0 0 0 4 2 3 4 1 1 0 0
0 0 0 0 0 0 0 0 0 0 0 0 0 0 0 0 0 0 0 0 0 0 0 0 0 0 0 20 61 8 4 23 7 0 2 2 2 6 3 0 0 0 6 9 0 0 0 0 0 0 0 0 0 0
0 0 0 0 0 0 0 0 0 0 0 0 0 0 0 0 0 0 0 0 0 0 0 0 0 2 0 0 44 9 2 12 3 1 9 10 7 8 4 1 0 0 1 0 0 0 0 0 0 0 0 0 0 0
0 0 0 0 0 0 0 0 0 0 0 0 0 0 0 0 0 0 0 0 0 0 0 0 6 0 1 5 10 30 28 28 35 15 1 1 0 0 0 0 0 0 0 0 0 0 0 0 0 0 0 0 0 0
0 0 0 0 0 0 0 0 0 0 0 0 0 0 0 0 0 0 1 2 0 3 2 0 0 0 0 0 0 3 4 2 0 0 0 0 0 0 0 0 0 0 0 0 0 0 0 0 0 0 0 0 0 0
0 0 0 0 0 0 0 0 0 0 0 0 0 0 0 0 0 0 0 0 1 0 0 0 0 0 0 0 0 0 0 0 0 0 0 0 0 0 0 0 0 0 0 0 0 0 0 0 0 0 0 0 0 0
0 0 0 0 0 0 0 0 0 1 0 0 0 0 0 0 0 0 0 0 0 0 0 0 0 0 0 0 0 0 0 0 0 0 0 0 0 0 0 0 0 0 0 0 0 0 0 0 0 0 0 0 0 0
0 0 0 0 0 0 1 0 0 0 0 0 0 0 0 0 0 0 0 0 0 0 0 0 0 0 0 0 0 0 0 0 0 0 0 0 0 0 0 0 0 0 0 0 0 0 0 0 0 0 0 0 0 0
0 0 0 0 0 0 0 0 0 0 0 0 0 0 0 1 1 10 3 4 2 0 0 0 0 0 0 0 0 0 0 0 0 0 0 0 0 0 0 0 0 0 0 0 0 0 0 0 0 0 0 0 0 0

GFSWCAN_con_mucape_021.txt.gz
CAPE
18 13 0 0 0 0 0 0 0 0 0 0 0 0 0 0 0 0 0 0 0 0 0 0 0 0 0 0 0 14 0 0 4 0 0 0 0 0 0 5 33 32 0 0 0 0 0 476 806 664 2400 2349 2459 2351
16 1 3 14 0 0 0 0 0 0 0 0 0 0 0 0 0 0 0 0 0 0 0 0 0 0 0 0 0 1 0 25 0 0 0 3 13 12 16 7 0 154 26 161 35 12 1506 1313 2125 2207 2252 2360 2579 2480
13 1 0 12 9 0 0 0 0 0 0 0 0 0 0 0 0 0 0 0 0 0 0 0 0 0 0 0 0 0 1 68 45 0 25 31 34 64 58 6 49 145 54 268 91 146 890 1182 1667 2051 2082 2334 2374 2284
11 6 8 13 7 0 0 0 0 0 0 0 0 0 0 0 0 0 0 0 0 0 0 6 0 0 0 0 0 0 0 0 3 0 0 22 42 43 66 76 253 349 481 97 109 1062 796 1381 1416 1559 1860 2007 2151 2212
8 0 0 6 19 10 0 10 7 0 0 0 0 0 0 0 0 0 6 2 0 0 0 3 0 0 0 0 0 0 0 0 0 10 1 11 25 67 60 37 70 134 360 526 486 767 925 1171 1257 1309 1497 1681 1832 1681
5 26 0 0 9 4 13 0 0 0 0 0 0 0 0 0 0 0 17 5 1 0 0 18 3 0 0 0 0 0 0 0 0 5 9 16 75 51 38 63 38 109 173 106 137 381 717 886 967 1017 1247 1228 1412 1317
0 9 0 0 13 7 1 0 0 0 0 0 0 0 0 0 0 2 0 0 0 2 0 17 22 2 8 1 11 8 0 0 0 2 5 18 43 17 26 55 213 135 103 89 48 120 535 365 508 641 957 986 750 818
0 0 0 20 17 9 3 2 0 0 0 0 0 0 0 0 0 7 7 0 0 4 0 54 78 30 5 34 41 23 13 3 6 2 11 17 17 38 12 7 11 71 93 58 51 92 111 272 297 418 515 723 771 722
0 8 0 19 17 16 10 1 0 0 0 0 0 0 2 3 19 4 0 0 6 8 13 2 104 207 14 99 138 37 55 66 29 36 21 25 37 21 31 28 6 44 80 45 62 78 124 130 170 194 205 425 583 507
0 34 0 22 17 23 2 0 0 0 0 0 0 14 31 12 0 0 7 8 14 4 2 10 76 82 39 67 66 167 77 55 39 29 65 46 66 38 24 38 95 108 85 114 98 109 77 231 211 62 71 119 427 450
0 38 0 30 23 18 2 0 0 0 0 2 46 27 13 0 21 20 18 28 14 19 9 23 55 51 36 113 156 158 273 273 133 152 63 45 74 60 20 52 55 78 89 110 147 150 151 205 193 152 19 7 36 553
0 45 39 22 23 15 5 0 0 1 32 12 5 5 47 29 25 6 25 21 17 17 27 36 41 65 194 132 340 314 69 85 60 162 94 67 367 338 180 59 14 63 79 75 89 139 152 166 225 241 183 85 89 393
0 47 43 37 21 20 2 0 0 0 0 13 33 56 21 26 0 0 17 26 16 30 160 162 235 75 206 221 246 224 103 91 86 39 108 293 205 87 58 31 5 47 56 148 141 162 171 205 222 253 261 106 173 191
65 43 44 40 24 12 0 0 0 0 0 42 39 0 32 18 10 38 42 35 81 61 65 34 26 42 195 327 255 187 156 160 110 88 138 90 81 35 35 25 18 18 31 133 197 305 326 364 373 346 393 312 137 675
70 52 44 2 7 0 0 0 0 0 32 32 9 0 0 18 26 10 7 32 27 31 25 36 25 26 54 101 180 146 111 89 63 146 72 32 78 46 62 69 23 27 26 44 320 403 471 504 651 729 700 407 217 422
55 54 0 16 0 0 0 0 0 9 45 47 26 30 27 20 21 32 46 55 42 30 32 34 30 37 14 24 15 38 39 72 109 72 50 40 35 27 41 59 14 1 0 4 102 374 562 660 832 897 824 752 683 917
6 0 19 7 0 0 0 2 4 35 62 41 31 20 22 34 32 35 134 100 51 15 25 6 13 36 22 14 14 42 72 150 14 5 1 66 38 3 0 0 8 0 7 18 59 362 519 1017 1202 1190 1198 1149 1162 1137
29 7 0 0 0 0 0 3 51 40 30 19 5 39 38 66 119 133 96 59 51 29 48 23 49 52 17 14 23 63 24 12 20 18 0 0 0 0 4 6 28 56 40 23 175 417 539 661 598 568 529 361 400 351
11 1 0 0 2 25 50 36 28 45 39 31 47 88 101 94 55 44 39 34 32 32 37 38 27 17 5 28 36 53 45 8 3 0 0 0 0 0 0 19 12 53 164 176 208 406 399 398 387 364 291 160 116 176
0 0 0 0 0 49 50 57 30 50 38 71 60 53 27 19 18 37 29 31 40 27 35 5 8 19 84 58 49 13 0 0 0 0 0 0 1 0 3 50 58 82 80 86 36 164 334 114 169 158 68 64 42 24
0 0 0 1 46 51 50 25 49 35 27 25 16 34 17 26 33 15 19 32 9 42 1 29 42 26 42 18 0 0 0 0 0 0 0 0 8 20 21 83 36 24 11 13 17 27 45 17 36 13 9 12 0 0
13 0 36 0 39 10 34 16 32 37 41 20 33 40 40 42 28 3 0 0 0 26 0 0 0 0 0 4 1 0 0 0 0 0 0 0 1 13 24 33 17 22 1 0 0 9 1 14 11 0 0 0 0 1
0 0 32 3 2 8 9 19 21 32 0 20 28 9 11 0 0 0 0 0 0 2 1 2 3 2 6 2 0 0 0 0 0 1 0 0 0 0 4 0 0 13 0 0 1 3 0 6 0 1 0 6 2 1
0 24 24 0 0 0 16 5 17 4 2 2 0 0 0 0 0 0 0 0 0 3 1 1 0 0 0 0 0 0 0 0 0 0 0 1 0 0 2 2 3 15 21 41 67 1 22 56 0 0 0 0 0 4
0 0 1 0 29 0 0 0 0 0 0 0 0 0 0 0 0 0 0 0 0 0 0 0 3 0 0 0 0 0 0 0 0 0 2 0 77 62 48 58 85 47 44 1 39 97 75 40 39 33 14 3 1 3
0 0 0 0 12 0 0 0 0 0 0 0 0 0 0 0 0 0 0 0 0 0 0 0 0 0 0 0 0 58 63 34 61 79 46 9 6 22 0 0 0 55 77 70 37 14 2 14 13 0 0 0 0 10
0 0 0 0 0 0 0 0 0 0 0 0 0 0 0 0 0 0 0 0 0 0 0 0 24 0 7 79 104 62 31 56 58 30 23 7 16 21 3 0 0 0 0 0 3 5 1 1 1 4 12 21 20 20
0 0 0 0 0 0 0 0 0 0 0 0 0 0 0 0 0 0 0 0 0 0 7 17 0 4 72 54 54 39 32 40 39 31 11 5 0 0 0 0 0 0 0 0 3 11 10 13 16 18 19 23 21 19
0 0 0 0 0 0 0 0 0 0 0 0 0 0 0 0 0 0 0 0 6 3 0 1 7 26 62 35 32 34 42 38 19 2 0 1 2 2 4 0 1 2 0 0 0 0 0 2 19 22 17 18 16 17
0 0 0 0 0 0 0 0 0 0 0 0 0 0 0 0 0 0 26 55 57 43 39 33 31 22 31 25 18 9 2 5 7 6 8 10 11 10 10 8 8 8 6 4 0 0 0 0 0 10 9 18 17 11
0 0 0 0 0 0 0 0 0 0 0 0 0 0 0 0 0 28 9 3 1 1 0 0 0 0 0 0 0 1 4 3 2 2 14 17 17 14 9 2 2 6 9 9 12 18 16 14 21 14 13 9 1 0
0 0 0 0 0 0 12 0 0 0 0 0 0 0 0 0 0 0 0 3 10 5 0 0 1 4 4 2 0 0 1 4 8 17 24 23 17 10 17 17 18 12 10 8 9 14 9 6 8 4 3 3 1 0
0 0 0 0 0 0 14 13 0 0 0 0 0 0 0 2 0 0 0 6 0 0 2 1 2 3 0 3 0 0 0 0 0 0 0 0 0 0 5 16 3 3 1 3 3 3 2 1 0 1 0 0 0 0

GFSWCAN_con_mucape_024.txt.gz
CAPE
28 16 8 0 1 0 0 0 0 0 0 0 0 0 0 0 0 0 0 0 0 0 0 0 0 0 0 0 0 2 19 4 0 0 0 0 0 1 7 117 105 75 17 0 19 0 0 0 300 1121 2351 2475 2243 2107
41 17 8 0 1 0 0 0 0 0 0 0 0 0 0 0 0 0 0 0 0 0 0 0 0 0 0 0 0 0 3 2 25 0 0 0 0 0 388 39 91 62 287 153 112 50 1821 1807 2315 2413 2349 2377 2325 2316
47 32 3 0 0 5 0 0 0 0 0 0 0 0 0 0 0 0 0 0 0 0 0 0 0 0 0 0 0 0 2 6 71 27 10 39 2 5 92 61 127 92 252 328 332 612 1315 1646 1638 1606 1966 2098 1997 1910
48 36 6 3 1 11 0 0 0 0 0 0 0 0 0 0 0 0 0 0 0 0 0 2 0 0 0 0 0 0 0 0 0 0 0 0 55 101 99 109 88 239 360 340 316 990 950 758 1153 1201 1515 1903 2145 2195
50 44 17 2 0 13 9 0 0 0 0 0 0 0 0 0 0 0 0 0 0 0 1 4 0 0 0 0 0 0 0 0 0 0 0 0 0 0 0 4 12 336 297 645 899 686 1079 1030 1109 998 1164 1198 1484 1700
42 23 15 0 0 0 11 1 0 0 0 0 0 0 0 0 0 0 14 5 0 0 0 20 22 0 0 0 0 0 0 0 0 0 1 3 1 22 11 8 38 92 192 256 191 98 124 835 561 695 682 1000 1341 1332
17 15 14 26 0 0 8 2 0 0 0 0 0 0 0 0 0 1 1 0 0 0 0 5 34 0 0 0 0 0 0 0 0 0 0 0 22 14 1 15 145 97 93 39 12 17 196 384 295 276 342 601 836 895
0 0 8 29 0 0 14 1 0 0 0 0 0 0 0 0 0 3 0 0 0 0 0 32 109 44 0 2 13 1 17 1 0 0 0 4 2 19 7 10 0 20 31 37 13 0 25 34 166 126 185 260 916 925
0 0 0 23 28 22 13 4 0 0 0 0 0 0 0 0 12 10 0 0 0 0 9 0 119 146 14 39 103 70 30 35 9 8 0 3 26 26 26 79 0 2 32 25 2 0 2 5 34 121 105 191 375 735
0 0 0 24 21 18 17 4 0 0 0 0 0 3 40 17 0 0 1 16 5 0 0 0 61 231 178 127 182 146 176 61 47 56 41 45 23 61 39 37 49 77 49 29 22 11 25 64 153 199 68 92 72 143
0 0 0 0 17 16 16 1 0 0 0 1 25 61 42 0 4 24 9 8 14 9 0 0 45 154 148 103 344 250 306 259 154 93 67 113 67 160 100 139 63 9 11 0 7 12 21 15 50 88 126 79 34 248
0 0 0 2 28 23 8 0 0 0 16 7 7 4 25 27 26 27 13 22 25 15 60 25 105 72 163 217 404 376 254 165 198 240 216 91 328 379 205 123 76 67 39 41 49 51 49 52 45 51 67 59 72 40
0 0 0 47 37 18 1 0 0 0 0 20 33 55 20 38 4 4 3 44 32 38 125 184 251 186 219 161 289 317 197 265 134 154 79 451 404 242 173 110 42 12 0 3 31 40 86 67 67 101 89 113 160 292
0 0 56 49 42 15 0 0 0 0 0 61 46 5 26 12 17 51 47 105 155 222 215 90 150 111 340 320 333 206 174 154 197 63 111 429 213 102 70 74 29 11 6 1 5 30 83 69 120 148 154 146 166 269
0 51 60 44 25 6 0 0 0 0 5 60 26 0 0 48 73 34 27 35 36 21 55 98 56 41 111 152 163 187 142 142 125 214 239 154 76 24 30 40 28 26 11 16 6 0 28 121 270 323 456 390 416 401
52 48 26 31 13 0 0 0 0 0 44 21 22 22 60 46 28 33 31 105 61 29 27 25 46 71 71 34 35 66 78 112 192 220 5 10 31 47 44 18 14 23 26 10 6 14 37 200 427 624 623 536 746 267
0 0 22 6 0 0 0 0 2 22 43 9 18 24 57 47 56 20 66 110 166 40 61 32 50 46 67 40 38 76 163 52 11 14 9 36 14 3 0 1 2 1 0 0 0 4 132 293 552 861 631 321 715 647
64 3 0 0 0 0 0 0 40 36 17 20 43 41 34 40 238 223 61 27 15 28 14 22 28 62 57 46 42 87 16 8 15 47 24 3 0 0 0 0 0 10 1 26 23 87 387 723 658 412 222 155 202 217
17 2 0 0 0 24 11 31 39 42 21 35 31 27 46 123 132 109 21 20 19 16 15 17 13 24 23 46 58 37 17 18 17 0 0 0 0 3 0 0 10 45 4 64 243 338 432 517 413 321 222 142 95 122
0 0 0 0 0 49 46 43 36 75 44 79 63 45 11 84 42 27 16 21 17 19 5 19 27 68 98 34 9 7 0 0 0 0 0 0 2 0 0 22 13 42 53 56 66 129 115 158 68 78 50 49 67 72
0 0 0 0 24 51 43 23 17 41 39 46 68 49 35 36 37 35 15 6 5 10 0 28 44 42 68 56 7 1 0 0 0 0 0 0 9 37 14 17 14 7 22 13 7 5 61 73 60 30 19 8 16 33
12 0 48 12 50 22 37 38 58 53 36 41 38 42 43 46 45 24 3 4 20 36 37 20 13 0 0 0 0 0 0 0 0 0 0 6 13 10 9 9 0 0 1 0 0 2 18 24 19 21 13 2 10 1
1 13 58 27 14 6 3 24 31 30 33 35 23 11 8 21 8 0 0 0 1 0 0 0 0 0 1 4 0 0 0 0 0 0 0 0 5 0 0 0 1 2 0 0 0 2 0 0 0 0 0 2 6 6
0 25 19 20 2 0 32 24 28 43 8 2 7 6 3 0 0 0 0 0 0 5 6 7 2 0 0 0 0 0 0 0 0 0 0 0 0 0 29 70 48 36 7 4 0 1 1 1 0 0 0 0 0 0
13 0 0 0 23 8 0 0 0 0 0 0 0 0 0 0 0 0 0 0 0 0 0 0 0 0 0 0 0 0 0 2 0 43 78 6 7 8 51 5 1 8 0 1 29 47 52 47 72 38 7 5 8 9
0 0 3 10 14 3 0 0 0 0 0 0 0 0 0 0 0 0 0 0 0 0 0 0 0 0 0 0 0 2 0 0 38 43 27 32 44 67 58 31 49 64 56 66 71 22 23 7 0 0 0 0 0 13
0 0 16 10 0 0 0 0 0 0 0 0 0 0 0 0 0 0 0 0 0 0 0 0 0 0 6 65 82 133 72 45 53 6 38 48 25 28 7 0 16 61 70 48 32 4 0 0 1 4 14 21 19 19
0 0 0 0 0 0 0 0 0 0 0 0 0 0 0 0 0 0 0 0 0 0 0 0 0 62 39 8 13 33 26 21 23 4 0 0 0 0 0 0 0 0 0 0 2 6 9 14 16 18 16 15 12 5
0 0 0 0 0 0 0 0 0 0 0 0 0 0 0 0 0 0 0 0 0 13 31 38 58 50 42 49 50 34 34 16 0 3 4 4 3 0 0 0 0 0 0 0 0 0 0 0 0 11 10 9 10 11
0 0 0 0 0 0 0 0 0 0 0 0 0 0 0 0 0 1 1 4 17 40 25 30 40 53 34 23 14 4 10 13 13 10 23 18 18 15 15 15 15 12 8 2 0 0 0 0 0 4 5 13 16 9
21 0 0 0 0 0 0 0 0 0 0 0 0 0 0 0 10 31 46 67 56 51 43 25 9 0 0 1 6 8 5 2 2 4 21 26 25 21 10 1 5 11 13 15 18 25 9 9 23 11 11 5 0 0
24 0 0 0 0 0 0 0 0 0 0 0 0 0 0 9 5 6 8 9 6 2 0 2 11 10 2 1 0 0 1 8 14 1 1 14 26 26 26 31 24 12 12 13 11 17 11 0 8 6 4 0 1 0
0 0 0 0 0 0 0 0 0 0 0 0 0 1 3 0 0 0 0 7 4 0 0 2 2 2 1 3 0 0 0 0 0 0 0 0 0 0 0 0 0 0 0 2 3 3 0 0 0 0 0 0 0 0

GFSWCAN_con_mucape_027.txt.gz
CAPE
48 40 31 10 0 0 0 0 0 0 0 0 0 0 0 0 0 0 0 0 0 0 0 0 0 0 0 0 0 0 0 0 0 0 0 0 0 0 0 0 124 0 0 0 0 0 0 1412 1148 1344 562 494 1712 1347
45 49 44 21 0 0 0 0 0 0 0 0 0 0 0 0 0 0 0 0 0 0 0 0 0 0 0 0 0 0 0 1 47 26 0 0 0 0 0 0 81 41 2 0 0 0 2158 1919 2032 1824 1735 1722 1830 1668
49 55 54 31 0 0 0 0 0 0 0 0 0 0 0 0 0 0 0 0 0 0 0 0 0 0 0 0 0 0 0 0 6 0 0 13 49 6 8 147 102 177 313 120 208 872 994 1110 1080 1351 1546 1594 1424 1837
47 52 56 40 2 0 0 0 0 0 0 0 0 0 0 0 0 0 0 0 0 0 0 0 0 0 0 0 0 0 0 0 0 0 0 0 0 0 3 20 17 84 234 400 661 513 643 345 213 176 670 1509 1524 1309
50 55 55 43 11 0 0 0 0 0 0 0 0 0 0 0 0 0 0 0 0 0 0 0 0 0 0 0 0 0 0 0 0 0 0 0 10 0 3 3 20 0 199 203 239 220 606 588 339 276 745 1535 1491 1351
42 50 57 35 8 0 0 0 0 1 0 0 0 0 0 0 0 0 0 0 0 0 0 0 0 0 0 0 0 0 0 0 0 0 0 0 4 6 18 17 122 37 120 214 54 96 202 219 461 298 746 1221 1320 1181
10 47 32 11 10 2 0 0 1 0 0 0 0 0 0 0 0 0 0 0 0 0 0 0 26 0 0 0 0 0 0 0 0 0 0 0 0 0 0 3 50 45 30 38 7 3 152 245 121 252 226 1137 867 598
0 8 0 0 20 4 0 0 0 0 0 0 0 0 0 0 0 0 0 0 0 0 0 1 86 14 0 0 0 0 0 0 0 0 0 0 0 0 0 0 0 15 1 9 9 5 0 3 177 168 65 142 556 628
0 0 0 0 28 9 0 0 1 0 0 0 0 0 0 0 0 2 0 0 0 0 0 8 59 150 82 7 73 25 10 5 0 0 0 0 0 0 2 0 0 0 0 0 0 0 0 4 7 14 136 319 394 575
0 0 0 0 0 19 0 0 2 0 0 0 0 1 8 13 0 0 0 1 0 0 0 0 25 89 3 130 164 236 125 36 40 7 1 0 0 0 8 48 71 20 0 0 0 0 0 0 0 10 20 3 40 29
0 0 0 0 0 14 0 1 1 0 0 0 7 47 80 0 0 8 22 24 10 2 0 0 0 183 71 132 224 279 222 229 110 122 64 93 99 181 174 133 92 46 0 5 17 6 0 0 0 20 6 0 16 147
61 0 0 0 0 13 5 8 0 0 2 7 6 3 1 4 31 16 20 22 5 9 173 50 25 186 201 513 384 260 168 168 128 197 278 122 272 405 165 120 86 41 26 42 20 0 0 0 0 4 24 9 22 130
53 42 0 0 0 21 20 5 0 0 0 1 0 18 9 28 3 0 0 41 113 185 477 405 417 374 417 433 380 239 83 151 182 313 165 290 260 284 190 106 27 5 0 2 0 0 0 0 0 0 7 72 33 179
72 6 0 0 0 31 22 0 0 0 0 10 45 0 4 1 0 12 53 202 211 264 257 208 390 346 419 420 296 138 249 316 174 163 208 377 152 76 44 16 15 0 0 0 0 0 0 0 0 0 25 147 236 146
80 23 0 0 57 36 12 0 0 0 1 17 67 0 0 30 29 148 188 71 197 235 133 218 279 328 330 221 193 213 177 112 258 232 276 334 232 126 70 52 7 2 0 0 3 0 0 0 0 13 148 244 151 155
19 0 0 32 42 27 0 0 0 0 9 37 25 8 96 92 56 55 90 132 156 164 156 171 67 168 79 104 83 108 71 103 6 2 23 98 60 10 0 0 0 0 0 0 0 0 0 0 0 2 115 243 259 141
0 0 24 29 22 0 0 0 0 2 16 5 35 63 33 58 130 146 321 27 133 169 161 119 78 46 208 68 25 171 163 10 14 3 32 42 0 0 0 0 0 0 0 0 0 3 0 1 3 94 327 309 73 56
57 30 14 6 0 0 0 0 13 2 0 7 35 67 116 123 386 480 50 158 193 94 64 51 44 44 73 41 54 62 16 32 18 0 0 0 0 0 0 0 0 2 0 3 11 13 14 50 215 337 313 203 91 3
5 0 0 0 0 0 23 19 51 52 17 67 126 106 152 267 130 76 117 135 103 64 30 42 4 2 55 145 54 10 5 1 0 0 0 0 0 0 0 0 7 1 26 20 4 36 118 178 206 203 78 49 3 16
0 0 0 0 0 19 48 74 195 120 128 186 92 131 154 190 59 19 52 59 12 8 13 5 26 135 112 8 2 0 0 0 0 0 0 0 5 0 2 12 9 30 5 41 26 57 36 209 271 90 42 35 48 81
0 0 0 1 16 22 108 109 8 91 128 135 104 113 65 81 54 58 33 1 0 14 0 19 81 45 33 45 3 0 0 0 0 0 0 10 15 15 17 17 11 10 1 4 32 5 21 15 0 0 11 39 58 69
0 0 3 3 9 86 52 140 135 143 88 59 72 65 76 71 19 0 0 0 0 27 32 6 4 7 0 1 0 0 0 0 0 0 0 3 6 11 14 3 0 0 0 0 0 20 10 33 15 14 16 3 1 0
0 10 50 43 2 0 0 45 33 36 51 60 56 6 29 14 0 0 1 6 0 0 0 0 0 0 0 0 0 0 0 0 0 0 2 8 2 0 1 0 0 0 0 0 2 0 3 19 3 0 1 1 1 0
4 25 18 21 0 0 19 18 29 25 1 3 3 0 0 3 0 0 0 0 0 0 0 7 5 0 0 0 0 0 0 0 0 0 0 0 0 0 7 10 0 6 8 6 6 1 6 0 9 5 0 1 2 0
0 0 0 0 18 10 0 0 0 0 0 0 0 0 0 0 0 0 0 0 0 0 0 0 0 0 0 0 0 0 1 0 8 2 0 7 10 10 2 7 1 0 0 0 0 0 0 0 1 18 26 31 1 0
0 0 0 10 17 6 0 0 0 0 0 0 0 0 0 0 0 0 0 0 0 0 0 0 0 0 0 0 0 0 1 2 36 51 54 42 12 20 12 6 5 24 29 47 72 81 68 42 17 3 1 1 8 15
0 0 46 35 28 17 11 0 0 0 0 0 0 0 0 0 0 0 0 0 0 0 0 0 0 0 1 0 44 70 54 46 57 89 103 72 54 41 48 32 83 54 50 53 27 0 0 0 0 1 5 29 24 11
0 0 0 0 0 0 0 0 0 0 0 0 0 0 0 0 0 0 0 0 0 0 0 0 4 32 63 56 79 93 90 77 89 10 2 1 0 0 0 0 1 1 0 0 0 5 16 27 23 26 22 6 0 0
0 0 0 0 0 0 0 0 0 0 0 0 0 0 0 0 0 0 0 0 0 0 0 17 36 44 57 84 62 44 52 43 0 1 0 0 0 0 0 0 0 0 0 0 0 0 0 0 0 3 7 0 0 0
0 0 0 0 0 0 0 0 0 0 0 0 0 0 0 0 0 0 0 0 0 9 16 27 45 65 53 70 88 84 42 19 19 4 14 13 5 0 3 4 3 1 0 0 0 0 0 0 0 2 1 7 6 9
0 0 0 0 0 0 0 0 0 0 0 0 0 0 0 0 0 5 10 20 33 75 70 44 56 19 30 16 23 1 0 3 13 16 26 17 8 16 14 16 19 23 23 24 18 10 5 6 11 8 28 11 0 0
14 0 0 0 0 0 0 0 0 0 0 0 0 0 1 19 24 40 10 13 24 57 54 18 17 2 0 0 2 0 0 0 0 0 0 0 0 0 4 18 11 10 10 13 11 30 14 5 7 4 4 0 0 0
46 0 0 0 0 0 0 0 0 0 0 0 0 6 0 0 0 0 8 30 38 2 12 26 4 9 2 0 0 0 0 0 0 0 0 0 0 0 0 0 0 0 0 1 7 7 1 0 0 0 0 0 0 0

GFSWCAN_con_mucape_030.txt.gz
CAPE
38 49 48 37 14 7 0 0 0 0 0 0 0 0 0 0 0 0 0 0 0 0 0 0 0 0 0 0 0 0 0 0 0 0 0 0 0 0 0 0 0 0 0 0 0 0 0 1564 1235 392 222 828 546 630
37 41 47 43 32 3 0 0 0 0 0 0 0 0 0 0 0 0 0 0 0 0 0 0 0 0 0 0 0 0 0 0 0 20 0 0 0 0 0 0 0 0 0 0 0 0 1316 1099 1533 1569 806 1119 942 813
38 49 49 48 38 0 0 0 0 0 0 0 0 0 0 0 0 0 0 0 0 0 0 0 0 0 0 0 0 0 1 0 0 0 0 8 24 0 0 0 0 4 57 150 610 729 799 769 847 1032 1345 1201 1373 1007
42 45 42 45 40 2 2 3 0 0 0 0 0 0 0 0 0 0 0 0 0 0 0 0 0 0 0 0 0 0 0 2 0 0 0 0 0 0 0 0 0 0 15 269 310 321 336 279 282 310 1199 1292 1186 1170
48 45 48 50 41 20 7 0 0 0 1 0 0 0 0 0 0 0 0 0 0 0 0 0 0 0 0 0 0 0 0 0 0 0 0 0 0 0 0 0 22 93 82 47 135 226 318 250 147 242 1009 1343 1133 977
0 23 48 49 38 23 3 4 0 0 0 0 0 0 0 0 0 0 0 0 0 0 0 0 0 0 0 0 0 0 0 0 0 0 0 0 0 0 0 0 31 46 79 25 23 33 119 288 369 330 635 1081 798 858
0 0 0 44 33 0 8 0 0 0 0 0 0 0 0 0 0 0 0 0 0 0 0 0 0 0 0 0 0 0 0 0 0 0 0 0 0 0 0 5 28 24 20 17 16 29 74 38 22 137 865 771 716 622
0 0 18 35 15 23 12 0 0 1 0 0 0 0 0 0 0 0 0 0 0 0 0 0 5 0 0 0 0 0 0 0 0 0 0 0 0 0 0 0 8 0 0 0 0 0 6 1 0 3 381 617 539 459
0 0 34 24 0 26 19 7 0 2 2 0 0 0 0 0 0 0 0 0 0 0 0 0 1 17 15 0 0 0 0 0 0 0 0 0 0 0 0 0 0 1 0 0 0 0 0 5 13 4 31 281 344 537
0 0 0 0 0 0 20 0 1 3 0 0 0 0 0 0 0 0 0 0 0 0 0 0 6 21 0 1 20 38 22 3 2 0 0 0 0 0 0 0 0 0 0 9 4 0 0 0 0 0 10 41 29 30
48 0 0 0 0 0 19 5 6 0 0 0 2 4 8 0 0 0 0 0 0 0 0 0 0 2 4 2 28 23 27 33 19 2 12 2 0 23 27 28 36 7 1 0 0 0 7 0 0 0 0 0 2 16
74 51 0 0 0 0 14 4 10 0 0 0 1 0 0 0 0 0 0 0 0 0 9 0 3 0 15 38 18 21 6 9 0 8 55 13 70 58 46 46 66 51 29 15 12 11 5 0 0 0 8 28 30 23
81 73 34 0 0 0 16 17 5 0 0 0 0 0 0 0 0 0 0 0 0 14 207 91 62 85 94 103 7 0 0 0 10 38 22 50 77 82 46 35 19 30 26 12 3 2 0 0 0 0 0 23 36 56
70 72 48 25 0 0 28 17 0 0 0 0 7 0 0 0 0 0 15 24 128 141 104 102 119 81 51 44 18 12 0 9 43 2 43 86 37 24 10 24 13 23 25 6 0 0 0 0 0 0 0 9 23 20
83 76 49 0 0 0 34 6 0 0 0 0 7 5 0 0 33 68 28 49 106 60 67 58 82 63 27 49 11 37 42 1 27 7 111 96 53 29 9 0 0 0 0 0 0 0 0 0 0 0 0 0 5 8
76 55 2 0 0 31 16 0 0 0 3 0 1 0 2 32 10 7 3 0 25 16 12 14 16 17 0 11 17 15 17 28 2 1 0 1 0 0 0 0 0 0 0 0 0 0 0 0 0 0 0 0 1 0
25 0 0 9 61 19 0 0 0 1 0 1 0 1 0 0 25 34 41 22 16 13 9 12 2 7 20 19 13 15 5 0 11 7 7 2 0 0 0 0 0 0 0 0 0 0 0 0 0 8 2 0 12 4
15 0 61 56 0 0 0 0 1 0 0 0 2 3 13 8 22 21 41 28 20 10 12 7 0 2 5 9 14 6 7 12 15 2 0 0 0 0 0 0 0 0 3 3 18 0 0 0 0 8 38 3 0 0
0 0 39 0 0 0 0 1 2 0 9 11 13 10 38 25 17 11 6 0 0 0 0 0 0 0 18 17 16 8 5 1 0 0 0 0 0 0 0 0 0 18 21 11 22 6 54 49 136 66 55 3 0 1
45 18 0 0 0 24 34 0 11 6 1 16 33 15 31 28 10 5 0 0 0 0 0 0 5 2 0 0 0 0 0 0 0 0 0 0 0 0 0 0 6 17 6 22 24 24 47 25 14 44 56 0 11 7
0 0 0 0 4 15 9 26 0 7 17 31 22 8 10 25 20 4 0 0 0 0 0 3 10 5 0 0 0 0 0 0 0 0 0 0 13 14 12 7 1 0 26 23 7 0 32 0 4 0 2 0 8 40
0 1 31 35 13 25 10 6 5 1 15 9 28 18 15 19 3 2 0 0 0 0 0 0 0 0 2 0 0 0 0 0 0 0 10 13 8 15 22 1 0 0 0 6 8 4 14 9 7 4 5 0 4 14
2 7 15 13 1 0 0 0 1 12 9 0 0 0 0 0 0 0 0 0 0 0 0 0 0 0 0 0 0 0 0 0 0 3 15 8 0 0 6 6 0 0 2 6 3 7 8 10 3 0 4 7 3 2
4 2 7 4 0 0 5 2 3 1 0 0 0 0 0 0 0 0 0 0 1 0 2 3 0 0 0 0 0 0 0 0 2 4 0 0 0 7 0 0 0 1 6 7 0 0 8 0 7 9 7 9 1 1
0 0 0 0 0 0 0 0 0 0 0 0 0 0 0 0 0 0 0 0 0 0 0 0 0 0 0 0 0 0 0 0 0 0 0 6 2 0 0 0 0 0 0 0 0 3 0 11 14 15 13 11 13 12
0 0 0 6 4 0 0 0 0 0 0 0 0 0 0 0 0 0 0 0 0 0 0 0 0 0 0 0 0 3 0 7 1 1 15 14 0 0 0 0 5 16 27 42 55 65 52 31 25 22 26 31 16 3
0 0 20 13 9 7 0 0 0 0 0 0 0 0 0 0 0 0 0 0 0 0 0 0 0 0 0 0 0 0 7 10 25 22 37 36 24 36 37 32 41 42 37 37 47 6 11 8 2 6 10 13 14 4
0 0 0 0 0 0 0 0 0 0 0 0 0 0 0 0 0 0 0 0 0 0 15 0 0 0 0 6 13 32 23 22 25 26 9 14 24 14 21 44 23 2 0 0 0 2 11 14 18 14 10 4 6 3
0 0 0 0 0 0 0 0 0 0 0 0 0 0 0 0 0 0 0 0 0 0 0 0 4 10 13 16 19 32 43 49 17 0 0 0 0 0 0 0 0 0 0 0 0 3 10 8 7 4 2 0 0 0
0 0 0 0 0 0 0 0 0 0 0 0 0 0 0 0 0 0 0 0 7 13 23 34 40 43 46 49 60 48 14 13 22 0 0 0 0 0 0 0 0 0 0 2 3 0 0 0 1 0 1 0 4 2
0 0 0 0 0 0 0 0 0 0 0 0 0 0 0 0 0 4 0 1 6 24 32 33 42 43 19 26 38 0 0 3 3 0 0 0 0 0 1 3 6 5 4 3 5 18 14 6 11 5 6 3 2 0
0 0 0 0 0 0 0 0 0 0 0 0 0 0 0 0 0 3 1 4 8 8 20 25 29 0 0 6 2 2 4 14 9 2 0 0 3 0 1 0 0 3 5 2 0 4 7 2 1 2 0 0 0 0
0 0 0 0 0 0 0 0 0 0 0 0 0 0 0 0 2 0 0 0 0 0 0 0 0 0 0 0 0 0 0 0 0 0 0 0 0 0 0 0 2 0 0 0 0 0 0 0 0 0 0 0 0 0

GFSWCAN_con_mucape_033.txt.gz
CAPE
24 28 32 15 7 13 0 0 0 0 0 0 0 0 0 0 0 0 0 0 0 0 0 0 0 0 0 0 0 0 0 0 0 0 0 0 0 0 0 0 0 0 0 0 0 0 0 985 1507 194 186 708 488 520
30 34 32 28 13 19 0 0 0 0 0 0 0 0 0 0 0 0 0 0 0 0 0 0 0 0 0 0 0 0 0 12 10 0 0 3 0 0 0 0 0 0 50 1 0 0 1003 1313 1471 1156 885 900 801 758
24 31 0 27 21 22 0 0 0 0 0 0 0 0 0 0 0 0 0 0 0 0 0 0 0 0 0 0 0 0 0 0 3 3 0 0 0 0 0 0 0 43 65 148 375 591 1034 1348 1431 1464 1599 1522 1478 965
26 22 0 27 25 27 3 0 0 0 0 0 0 0 0 0 0 0 0 0 0 0 0 0 0 0 0 0 0 0 0 0 0 0 0 0 0 0 0 0 0 0 5 325 365 345 451 572 635 771 748 579 1168 1058
44 38 0 0 29 31 1 0 0 0 0 0 0 0 0 0 0 0 0 0 0 0 0 0 0 0 0 0 0 0 0 0 0 0 0 0 0 0 0 0 56 37 41 30 144 298 237 237 335 684 1141 1296 1102 1057
1 0 0 0 36 31 0 0 0 0 0 0 0 0 0 0 0 0 0 0 0 0 0 0 0 0 0 0 0 0 0 0 0 0 0 0 0 0 0 4 69 107 54 49 58 236 218 225 260 705 1185 1160 981 796
0 0 0 0 0 0 0 0 0 0 0 0 0 0 0 0 0 0 0 0 0 0 0 0 0 0 0 0 0 0 0 0 0 0 0 0 0 0 0 0 96 63 41 65 134 127 90 75 106 867 898 903 728 643
0 0 0 0 0 0 0 0 0 0 0 0 0 0 0 0 0 0 0 0 0 0 0 0 9 0 0 0 0 0 0 0 0 0 0 0 0 0 0 0 0 82 46 14 17 44 51 21 22 467 690 614 449 417
0 0 0 0 0 0 16 2 0 0 0 0 0 0 0 0 0 0 0 0 0 0 0 0 44 61 0 0 0 0 0 0 0 0 0 0 0 0 0 0 0 0 40 23 12 1 0 8 26 42 162 315 337 357
0 0 5 29 25 12 19 7 0 0 0 0 0 0 0 0 0 0 0 0 0 0 0 0 1 48 6 0 3 8 1 0 0 0 0 0 0 0 0 0 0 0 0 36 39 28 4 0 0 0 0 0 0 2
46 11 0 0 0 0 0 8 0 0 0 0 0 1 9 0 0 0 0 0 0 0 0 0 0 0 0 4 32 23 18 13 5 0 0 0 0 9 6 3 10 14 36 73 77 52 4 0 1 0 1 2 0 3
69 53 27 0 0 0 0 18 0 0 0 0 0 0 0 0 0 0 0 0 0 0 0 0 0 0 4 27 24 22 23 6 0 0 28 1 26 31 27 13 7 12 24 29 20 3 6 7 16 11 1 13 36 6
83 72 59 1 0 0 0 14 3 0 0 0 0 0 0 0 0 0 0 0 2 11 66 51 129 90 73 67 1 1 0 0 0 15 11 19 42 52 59 38 45 65 56 69 53 34 16 2 1 0 0 0 13 0
79 74 73 46 0 0 0 14 12 0 2 2 1 0 0 0 0 0 0 1 36 128 86 129 132 91 54 47 7 5 0 1 19 0 28 89 18 30 25 7 5 4 3 2 0 0 0 0 0 0 0 0 0 0
66 67 72 54 0 0 33 21 0 0 2 0 9 0 0 0 0 0 15 16 54 58 60 48 70 54 45 37 17 12 25 8 11 11 77 186 18 13 4 0 0 0 0 0 0 0 0 0 0 0 0 0 0 0
72 72 52 47 0 0 26 0 0 0 0 0 0 1 3 13 7 0 19 35 49 59 51 47 63 47 11 17 9 17 5 20 8 7 3 1 1 0 0 0 0 0 0 0 0 0 0 0 0 0 0 0 0 0
67 14 51 51 0 0 0 0 0 0 0 0 2 0 0 0 10 31 27 26 27 21 14 10 0 0 11 12 3 0 5 19 6 0 1 0 0 0 0 0 0 0 0 0 0 0 0 0 0 0 1 11 10 0
5 32 62 48 0 0 0 0 0 0 0 0 3 7 11 5 29 19 24 34 21 0 5 2 0 2 2 4 10 3 6 1 3 5 0 0 0 0 0 0 0 0 0 5 27 23 0 1 8 2 1 1 0 0
0 0 9 0 0 0 0 0 4 1 0 7 4 13 19 9 14 11 0 7 5 2 4 0 0 0 9 9 4 3 8 3 0 0 0 0 0 0 0 0 0 2 20 24 24 9 22 31 8 74 87 29 6 4
49 65 21 3 1 19 26 0 0 0 8 10 10 24 16 9 11 0 0 0 0 0 0 0 0 0 1 3 1 0 0 0 0 0 0 0 0 0 17 22 25 14 27 25 31 32 34 8 5 39 38 0 2 0
0 22 1 0 27 25 7 13 0 0 4 24 16 21 13 18 15 2 0 0 0 0 0 0 0 0 0 0 0 0 0 0 0 0 0 0 9 6 15 5 10 0 0 27 1 2 6 0 12 20 55 10 11 12
0 0 0 17 28 22 20 12 16 8 19 20 13 16 12 9 8 5 0 0 0 0 0 0 0 0 0 0 0 0 0 0 0 0 4 4 0 6 18 14 0 0 11 13 19 23 1 3 3 7 4 0 6 16
1 19 12 18 2 2 1 3 2 15 6 6 2 0 0 0 0 0 0 0 0 0 0 0 0 0 0 0 0 0 0 0 0 12 9 0 0 4 13 9 7 1 4 10 15 13 8 1 2 7 6 4 14 6
0 0 10 3 0 0 3 0 3 0 0 0 0 0 0 0 0 0 0 0 0 0 2 1 11 8 0 0 0 0 0 0 0 11 0 6 6 1 20 6 4 11 8 2 0 0 0 0 0 5 0 0 0 2
0 0 0 0 0 0 0 0 0 0 0 0 0 0 0 0 0 0 0 1 4 0 9 0 0 0 0 0 0 0 0 4 1 0 0 0 0 0 0 0 0 0 0 0 0 1 1 1 1 0 0 0 0 0
0 0 0 0 0 0 0 0 0 0 0 0 0 0 0 0 0 0 0 0 0 0 0 0 0 0 0 0 0 6 0 8 0 0 23 10 0 6 5 12 16 22 35 45 50 46 40 35 30 34 35 37 29 1
0 0 7 10 1 0 0 0 0 0 0 0 0 0 0 0 0 0 0 0 0 0 0 0 2 0 0 0 0 17 24 27 32 34 37 19 30 58 44 32 32 42 54 36 30 36 17 39 33 9 5 8 12 0
0 0 0 0 0 0 0 0 0 0 0 0 0 0 0 0 0 0 0 0 0 0 0 0 0 0 0 0 9 9 18 26 30 20 30 28 27 35 55 63 55 13 3 1 2 11 11 6 4 8 4 4 2 0
0 0 0 0 0 0 0 0 0 0 0 0 0 0 0 0 0 0 0 0 0 0 0 0 1 5 13 21 28 25 27 31 30 0 0 0 0 0 0 0 0 0 0 0 0 3 13 15 15 16 4 3 0 0
0 0 0 0 0 0 0 0 0 0 0 1 0 0 0 0 0 0 0 0 0 0 3 17 26 34 35 32 22 40 5 13 31 0 0 0 0 0 0 0 0 2 1 0 0 1 0 0 0 2 1 1 0 0
0 0 0 0 0 0 0 0 0 0 0 0 0 0 0 0 0 1 2 6 9 18 23 31 41 48 38 20 19 8 0 0 12 16 0 0 0 0 0 0 0 0 2 3 3 6 5 5 6 7 4 2 0 0
0 0 0 0 0 0 0 0 0 0 0 2 0 0 0 0 0 0 4 2 7 7 7 6 5 5 2 6 14 0 1 2 0 0 0 0 0 0 1 0 0 0 4 5 4 1 0 5 0 0 0 0 0 0
0 0 0 0 0 0 0 0 0 0 0 0 0 0 0 0 0 0 0 0 0 0 0 0 0 0 0 13 13 6 6 3 1 0 0 1 4 1 0 0 0 0 0 0 0 0 0 0 0 0 0 0 0 0

GFSWCAN_con_mucape_036.txt.gz
CAPE
2 0 0 0 0 0 9 0 0 0 0 0 0 0 0 0 0 0 0 0 0 0 0 0 0 0 0 0 0 0 0 1 0 0 0 0 0 0 0 0 1 11 27 34 25 2 12 645 1283 60 121 605 659 440
0 0 9 0 0 0 10 0 0 0 0 0 0 0 0 0 0 0 0 0 0 0 0 0 0 0 0 0 0 0 10 33 0 0 0 0 0 0 0 0 0 3 69 18 0 0 662 1113 1174 1091 642 720 559 582
0 0 1 0 0 4 13 0 0 0 0 0 0 0 0 0 0 0 0 0 0 0 0 0 0 0 0 0 0 0 0 19 15 0 0 0 0 0 0 0 1 111 182 226 198 299 1112 1407 1354 1437 1502 1440 1372 1062
0 0 0 0 0 0 17 0 0 0 0 0 0 0 0 0 0 0 0 0 0 0 0 0 0 0 0 0 0 0 0 1 2 10 4 3 3 0 0 0 0 17 57 489 341 565 874 1006 1074 1111 1089 997 1244 1513
1 0 0 1 0 0 0 0 0 0 0 0 0 0 0 0 0 0 0 0 0 0 0 0 0 0 0 0 0 0 0 0 0 0 0 1 0 0 0 0 89 60 46 53 196 419 351 506 531 665 1055 1213 1141 1003
0 12 18 17 0 0 0 0 0 0 0 0 0 0 0 0 0 0 0 0 0 0 0 0 0 0 0 0 0 0 0 0 0 0 0 0 0 0 0 24 95 125 93 39 302 291 311 379 473 783 1224 1070 867 615
0 22 24 0 0 0 0 0 0 0 0 0 0 0 0 0 0 0 0 0 0 0 0 0 0 0 0 0 0 0 0 0 0 0 0 0 0 0 0 1 139 98 153 207 291 149 78 107 543 891 948 807 707 591
29 0 0 0 0 0 0 0 0 0 0 0 0 0 0 0 0 0 0 0 0 0 0 0 3 0 0 0 0 0 0 0 0 0 0 0 0 0 0 0 83 83 97 194 185 79 31 36 126 604 641 570 342 311
0 0 0 0 0 0 0 0 0 0 0 0 0 0 0 0 0 0 0 0 0 0 0 0 40 53 0 0 0 0 0 0 0 0 0 0 0 0 0 0 0 1 97 51 51 59 9 2 64 208 173 191 168 128
0 0 0 0 0 0 0 0 0 0 0 0 0 0 0 0 0 0 0 0 0 0 0 0 0 76 52 1 0 0 0 0 0 0 0 0 0 0 0 0 0 0 0 5 22 23 12 3 0 0 0 0 0 0
0 0 0 1 42 0 0 0 0 0 0 0 0 0 0 0 0 0 0 0 0 0 0 0 0 59 0 30 15 9 7 6 0 0 0 0 0 3 1 0 0 0 0 0 33 29 32 24 12 0 0 2 0 0
72 33 35 0 36 0 0 0 0 0 0 0 0 0 0 0 0 0 0 0 0 0 0 0 0 34 37 47 31 11 17 11 0 0 7 2 0 20 29 6 6 15 20 37 50 58 65 64 31 0 1 10 18 13
66 67 61 49 0 0 0 0 0 0 0 0 0 0 0 0 0 0 0 0 0 0 17 38 0 23 63 69 6 11 9 1 0 7 0 0 28 43 48 40 21 24 34 44 60 60 47 24 13 12 3 0 0 1
86 83 17 59 0 0 0 7 1 0 0 0 0 0 0 0 0 0 0 0 0 49 123 109 158 122 63 27 20 1 0 0 9 0 4 33 72 45 51 30 22 9 4 9 15 9 0 0 0 0 0 0 0 0
59 79 75 47 0 0 0 14 0 0 1 0 0 0 0 0 0 0 0 0 2 33 46 33 31 21 26 24 30 10 24 9 17 7 104 143 151 36 15 7 0 0 0 0 0 0 0 0 0 0 0 0 0 0
77 63 42 71 34 0 0 2 0 2 0 0 1 0 0 0 2 0 0 0 19 46 34 20 48 69 15 20 1 5 1 6 11 17 10 3 0 0 0 0 0 0 0 0 0 0 0 0 1 0 0 0 0 0
13 9 75 50 0 0 0 0 0 1 0 0 0 0 0 0 0 0 11 0 15 33 17 4 1 0 5 8 0 0 10 12 6 0 0 0 0 0 0 0 0 0 0 0 0 1 0 0 0 0 0 0 0 1
7 55 6 46 0 0 0 0 0 0 0 0 0 6 4 0 3 18 30 10 17 17 15 1 0 1 1 2 18 0 13 1 0 0 0 0 0 0 0 0 1 2 8 0 1 23 17 11 34 26 11 9 4 5
42 27 46 0 0 0 0 0 5 0 0 0 0 2 0 13 23 13 10 16 14 6 0 1 1 0 0 8 6 8 14 0 0 0 0 0 0 0 14 10 0 16 3 53 44 43 50 43 6 11 33 10 2 2
57 43 0 0 0 14 0 7 0 2 1 6 12 10 6 14 8 2 0 0 1 0 0 0 0 0 6 12 13 0 0 0 0 0 0 0 0 5 5 9 25 41 47 43 25 26 21 1 1 14 13 6 0 0
0 0 0 1 35 45 16 11 0 1 2 5 7 11 12 10 10 0 0 0 0 0 0 0 0 0 0 0 0 0 0 0 0 0 0 0 4 10 10 14 11 4 0 34 3 2 3 4 1 2 5 0 2 28
3 3 38 52 56 36 28 16 16 3 15 5 17 6 12 7 0 1 0 0 0 0 0 0 0 0 0 0 0 0 0 0 0 0 1 9 0 3 5 8 0 2 23 7 22 14 0 0 4 11 1 0 6 3
2 19 26 19 9 6 3 4 18 29 20 9 3 1 1 1 0 0 0 0 0 0 0 0 0 0 0 0 0 0 0 0 0 4 1 0 5 15 26 18 17 10 3 2 12 16 3 7 7 12 11 26 24 3
1 4 13 10 0 10 5 1 12 6 0 0 0 0 0 0 0 0 0 0 0 0 0 0 21 16 0 3 1 0 0 7 8 0 14 14 10 26 27 14 15 9 0 0 0 3 1 0 0 1 0 0 2 9
0 0 0 0 0 0 0 0 0 0 0 0 0 0 0 0 0 0 0 0 0 6 15 20 0 0 0 0 0 0 0 2 0 0 0 0 0 0 0 0 0 0 0 0 0 0 1 1 0 0 0 0 0 0
0 0 0 0 0 0 0 0 0 0 0 0 0 0 0 0 0 0 0 10 0 0 0 0 0 0 0 0 0 0 0 8 1 0 0 0 4 6 7 10 16 22 31 38 38 39 43 41 31 26 23 16 12 0
0 0 0 4 0 0 0 0 0 0 0 0 0 0 0 0 0 0 0 0 0 0 0 0 0 0 0 0 0 12 20 18 19 15 26 14 16 26 28 29 29 31 38 34 28 29 32 26 33 33 18 5 10 0
0 0 0 0 0 0 0 0 0 0 0 0 0 0 0 0 0 0 0 0 0 0 0 0 0 0 0 11 23 20 26 41 30 21 23 19 18 18 28 44 57 25 5 1 11 25 6 6 7 3 5 1 0 0
0 0 0 0 0 0 0 0 0 0 0 0 0 0 0 0 0 0 0 0 0 0 8 34 0 16 18 17 22 32 41 33 1 0 0 1 0 0 0 0 0 0 0 0 0 4 2 4 7 6 3 0 0 0
0 0 0 0 0 0 0 0 0 7 0 0 0 0 0 0 0 0 0 0 0 0 0 7 14 18 34 43 33 33 42 10 14 0 0 0 0 0 0 0 0 0 0 0 0 4 5 1 2 3 2 0 0 0
0 0 0 0 0 0 0 0 0 0 0 0 0 0 0 0 0 0 0 0 4 9 16 18 27 43 29 21 23 20 10 3 10 1 0 0 0 0 0 0 0 0 0 1 6 6 4 2 2 7 7 3 2 1
0 0 0 0 0 0 0 0 0 0 0 0 1 0 0 0 0 4 6 10 19 23 31 26 12 4 1 3 13 5 0 0 0 0 3 0 0 0 0 0 0 0 0 0 0 0 0 0 0 0 0 0 0 0
0 0 0 0 0 0 0 0 0 0 0 0 0 0 0 0 0 0 0 0 0 0 0 0 0 0 0 0 6 1 0 0 0 0 0 0 0 0 0 0 0 0 0 0 0 0 0 0 0 0 0 0 0 0

GFSWCAN_con_mucape_042.txt.gz
CAPE
0 0 5 0 0 0 0 7 0 0 0 0 0 0 0 0 0 0 0 0 0 0 0 0 0 0 0 0 0 2 38 89 106 87 59 76 44 47 73 92 169 194 173 238 317 265 341 893 1055 558 1639 1938 1639 1441
0 0 0 0 0 1 0 3 0 0 0 0 0 0 0 0 0 0 0 0 0 0 0 0 0 0 0 0 0 15 12 0 36 256 149 59 68 54 209 58 101 203 575 255 400 536 1474 1539 2140 2137 2290 2191 1823 1515
1 0 0 0 0 0 0 0 1 0 0 0 0 0 0 0 0 0 0 0 0 0 0 0 0 0 0 0 0 14 5 0 11 12 194 161 253 129 100 174 238 563 592 335 469 1047 1774 2086 2049 1907 1693 2370 1795 1254
0 0 0 0 0 16 0 0 0 0 0 0 0 0 0 0 0 0 0 0 0 0 0 0 0 0 0 0 0 5 16 0 0 1 86 150 106 35 90 90 161 333 620 1034 551 1302 1470 1918 1852 1627 1853 2229 2148 1449
0 1 1 0 0 11 0 0 0 0 0 0 0 0 0 0 0 0 0 0 0 0 0 0 0 0 0 0 0 0 16 17 6 3 10 83 1 76 49 97 83 275 520 308 650 1650 1763 2111 1710 1704 2033 2069 1811 1775
0 0 0 0 0 0 13 0 0 0 0 0 0 0 0 0 0 0 0 0 0 0 0 0 0 0 0 0 0 0 1 12 28 0 0 7 12 22 77 104 587 563 647 639 965 1343 1490 1542 1521 2131 1596 1373 1912 1872
0 0 0 0 0 0 28 0 0 0 0 0 0 0 0 0 0 0 0 0 0 0 0 0 0 0 0 0 0 0 0 16 3 20 4 17 11 10 72 64 449 468 485 885 1127 1193 1221 1162 1693 1876 1844 1476 1196 1347
0 0 0 0 0 0 15 0 0 0 0 0 0 0 0 0 0 0 0 0 0 0 0 0 4 20 2 4 17 0 0 0 3 0 0 2 3 2 2 44 136 188 296 874 927 573 433 1089 1569 1417 1403 1207 949 769
0 0 0 0 0 0 0 0 0 0 0 0 0 0 0 0 2 11 0 0 0 0 0 0 5 93 22 48 28 7 0 0 0 0 0 0 0 0 0 0 11 83 170 347 316 671 329 453 928 1004 801 545 303 209
0 0 0 0 0 0 26 0 0 0 0 0 0 0 0 7 0 0 0 0 0 0 0 0 0 163 224 185 129 128 76 13 3 1 0 0 0 0 0 0 30 13 32 83 208 511 347 383 382 319 154 63 11 1
0 0 0 0 0 0 0 0 0 0 0 0 0 8 0 0 1 0 0 0 0 0 0 0 0 22 153 334 240 235 195 156 26 43 1 5 1 107 34 45 49 45 44 53 165 187 156 159 131 83 37 16 7 11
0 0 0 0 0 0 0 0 0 0 0 0 0 0 0 1 2 4 0 0 0 0 0 0 0 0 92 442 494 372 215 196 83 184 28 12 388 192 128 13 0 0 0 0 7 15 35 41 28 31 27 16 3 0
0 9 1 0 0 0 0 0 0 0 0 0 0 4 5 2 1 0 0 0 1 0 4 42 2 0 198 696 438 370 171 164 252 171 107 376 250 259 223 99 23 0 0 0 2 3 7 10 13 16 19 16 8 0
0 0 0 0 58 1 0 0 0 0 0 10 12 0 2 0 0 0 0 11 18 25 157 328 147 182 370 408 279 122 235 219 174 153 218 404 513 320 156 11 13 14 10 9 7 7 7 7 11 8 7 6 4 0
20 0 18 27 37 32 0 0 0 0 2 14 7 0 0 1 0 0 0 0 0 10 280 374 389 325 280 206 235 199 161 125 162 231 389 614 572 246 4 22 8 11 8 5 2 0 0 0 1 9 12 4 6 4
48 17 47 48 0 0 0 0 0 0 0 4 5 13 9 8 10 8 10 37 0 170 297 312 200 186 187 233 142 127 106 168 374 514 522 447 189 72 38 15 7 3 6 9 11 10 8 12 11 27 21 20 20 20
64 39 46 0 0 0 0 0 0 0 3 4 22 26 27 23 46 91 130 157 152 313 377 274 121 115 226 179 130 240 329 548 556 673 633 291 92 39 13 8 19 13 12 5 2 3 9 18 31 52 64 56 35 4
16 82 11 0 0 0 0 0 0 0 0 6 41 28 6 7 62 171 216 204 231 294 332 230 260 225 168 152 190 414 568 536 447 256 78 18 14 38 28 8 8 12 38 45 39 72 66 83 71 65 72 19 17 29
72 36 0 0 0 0 0 0 0 0 10 13 10 1 0 7 142 132 36 26 36 73 196 215 166 141 187 270 302 436 442 409 326 101 2 0 25 45 30 93 4 33 65 45 104 91 50 36 40 39 36 31 35 25
8 0 0 0 0 0 0 0 1 33 56 63 47 91 151 210 174 74 45 17 17 72 131 120 102 316 271 284 406 367 306 91 26 7 14 27 34 71 57 18 102 48 27 37 3 10 58 17 3 16 0 0 0 0
0 0 0 3 14 27 56 48 0 22 56 125 156 187 187 242 170 104 99 11 84 68 102 104 165 216 247 220 181 147 89 7 5 4 2 21 55 18 0 0 73 56 2 9 56 7 16 4 4 0 61 0 0 23
0 0 4 11 27 44 36 47 79 96 139 130 199 120 152 186 95 46 0 0 8 28 2 8 14 32 24 28 11 4 6 5 5 2 8 11 10 0 0 10 42 19 3 13 58 16 22 30 27 45 6 17 19 30
0 15 36 27 38 11 106 71 132 106 116 99 87 85 79 61 9 0 2 1 5 0 0 0 0 0 3 11 12 9 11 12 9 43 23 0 0 6 43 1 7 9 0 21 60 43 0 11 5 0 3 7 40 43
14 36 54 54 26 0 35 81 52 40 59 58 57 49 29 8 0 0 1 0 0 0 0 4 5 17 28 24 26 54 55 41 12 0 0 4 9 5 0 103 79 43 46 46 47 39 30 0 1 9 25 26 22 24
3 2 8 0 0 37 49 32 0 1 13 17 9 5 5 0 0 0 0 0 6 8 15 29 47 31 5 58 24 0 1 0 4 0 2 8 3 9 6 0 0 21 27 33 37 34 33 34 41 47 47 42 27 18
0 2 2 34 49 34 13 4 0 0 0 0 0 8 4 0 0 0 5 28 20 26 63 79 9 1 69 0 0 0 0 54 15 5 25 11 7 2 16 37 36 44 45 53 35 32 33 34 48 44 41 25 2 19
0 12 24 9 26 12 11 7 0 0 0 0 0 0 0 0 0 15 27 19 40 47 74 81 48 0 0 0 0 73 70 63 54 41 58 52 46 49 58 37 43 46 45 51 42 47 61 50 46 34 25 39 20 12
0 16 0 0 4 16 0 0 0 0 0 18 9 0 0 0 9 43 0 59 7 2 84 0 0 0 0 0 75 85 87 71 93 91 85 83 86 76 93 91 97 2 21 35 45 53 62 65 51 33 20 31 26 29
4 36 19 0 0 0 0 0 2 22 22 0 0 0 0 0 0 0 0 4 54 63 0 0 0 5 49 70 80 96 103 98 71 75 81 67 78 71 85 30 6 13 20 27 0 0 48 43 40 39 28 35 37 46
0 0 0 0 0 0 0 0 0 0 29 0 0 0 0 0 0 2 3 0 0 0 23 58 64 104 99 94 83 85 88 70 37 35 15 27 36 19 7 6 10 17 17 21 32 28 0 8 10 25 19 40 53 58
0 0 0 0 0 0 0 0 0 7 3 0 0 0 0 0 0 1 0 2 40 66 95 88 79 103 107 92 100 90 76 65 54 53 23 11 6 5 13 20 28 33 34 37 45 48 47 46 51 43 54 67 44 9
0 0 0 0 0 0 2 0 0 0 0 0 0 0 0 0 0 0 41 40 46 74 82 54 119 120 90 79 99 110 32 62 51 66 69 36 21 16 10 15 26 31 34 33 43 55 61 43 43 53 42 27 13 4
0 0 0 0 0 0 0 0 0 0 0 0 9 36 38 43 44 27 25 28 50 57 78 95 79 50 68 78 68 28 11 7 1 1 1 13 11 3 16 36 37 42 43 47 44 27 11 8 14 9 4 3 1 0

GFSWCAN_con_mucape_045.txt.gz
CAPE
0 0 0 2 0 0 0 0 0 0 0 0 0 0 0 0 0 0 0 0 0 0 0 0 0 0 0 0 5 17 52 166 165 72 27 28 51 103 114 301 678 309 463 317 420 449 532 447 762 779 1620 1592 954 1091
0 0 1 1 0 0 0 0 1 0 0 0 0 0 0 0 0 0 0 0 0 0 0 0 0 0 0 0 0 0 117 106 64 248 232 179 157 88 269 196 202 379 961 839 497 998 1173 1949 2780 2432 2417 1898 1592 1590
0 0 0 0 0 0 0 0 0 0 0 0 0 0 0 0 0 0 0 0 0 0 0 0 0 0 0 0 0 0 0 2 11 7 126 170 183 446 39 104 96 516 571 267 634 834 1719 1704 2100 2225 2431 2379 1721 1725
0 0 0 0 3 0 0 0 0 0 0 0 0 0 0 0 0 0 0 0 0 0 0 3 0 0 0 0 0 0 0 0 0 0 71 93 84 100 156 189 221 399 114 365 207 915 1112 1860 2139 2113 2381 2619 1767 1732
0 0 7 0 0 0 0 0 0 0 0 0 0 0 0 0 0 0 0 0 0 0 0 2 0 0 0 0 0 0 0 0 0 0 26 54 24 85 151 90 62 152 790 405 1329 1737 1510 2642 2322 2315 2261 2131 2013 2036
0 0 0 0 0 0 0 0 0 0 0 0 0 0 0 0 0 0 1 0 0 0 0 0 1 0 0 0 0 0 0 0 3 13 0 0 17 6 65 116 763 421 300 411 1287 1434 1883 2064 2153 2234 1962 2166 2095 2176
0 0 0 0 0 0 0 7 0 0 0 0 0 0 0 0 0 0 0 0 0 0 0 0 2 0 0 0 0 0 0 0 0 0 15 1 0 2 10 65 121 497 681 1260 1476 1501 1507 1693 2051 2327 1723 1649 1533 1716
0 0 0 0 0 0 0 12 0 0 0 0 0 0 0 0 0 0 0 0 0 0 0 0 10 2 0 5 9 0 0 0 0 0 0 3 0 0 0 282 455 250 723 995 666 559 714 1582 1823 1684 1722 1112 922 718
0 0 0 0 0 0 0 11 0 0 0 0 0 0 0 0 0 0 0 0 0 0 0 0 7 101 63 12 60 40 0 23 1 0 0 0 0 0 32 85 86 291 526 806 455 444 173 316 1090 1256 868 261 192 118
0 0 0 0 0 0 0 0 0 0 0 0 0 0 0 3 0 0 0 0 0 0 0 0 0 67 2 63 101 93 128 80 95 8 13 0 0 30 11 1 40 54 76 221 433 257 235 215 403 472 668 268 18 6
0 0 0 0 0 0 0 0 0 0 0 0 0 6 0 0 0 0 2 0 1 0 0 0 0 11 45 245 266 215 218 274 115 174 49 8 0 143 147 91 13 6 14 133 463 455 329 438 279 280 201 117 96 118
0 0 0 0 0 0 0 0 0 0 0 0 0 0 0 1 1 0 0 0 0 0 0 0 0 0 158 139 275 365 231 258 269 267 165 43 904 544 268 118 42 22 21 79 132 153 175 209 162 184 172 138 88 52
0 0 0 0 0 0 0 0 0 0 0 0 4 2 12 2 25 0 0 0 3 0 7 0 0 0 23 196 288 229 219 225 269 231 157 643 809 516 328 224 141 44 12 5 1 0 13 17 23 24 55 60 45 55
1 0 0 0 0 0 0 0 0 0 0 0 0 0 0 0 0 0 3 39 122 68 77 114 120 3 137 392 347 252 243 295 263 186 242 811 539 450 270 151 121 121 99 44 27 24 29 25 30 37 51 60 62 61
0 1 1 0 0 0 0 0 0 0 26 0 6 0 0 4 0 2 19 29 15 67 194 233 238 106 231 235 244 186 186 247 139 253 822 1187 790 521 380 134 114 191 130 85 71 56 45 41 58 72 84 78 60 28
0 0 0 76 56 0 0 0 0 11 16 9 12 7 4 0 7 4 6 32 77 145 343 296 149 132 195 129 137 158 120 148 483 838 905 883 591 401 305 202 169 136 166 119 104 96 100 99 105 67 34 34 18 12
0 0 57 4 3 0 0 4 25 9 36 10 16 25 25 64 47 80 80 143 172 336 399 247 149 155 212 242 138 206 293 647 818 870 1029 692 488 403 307 230 240 136 122 65 9 14 57 100 99 143 144 97 46 39
1 54 2 0 0 0 0 10 44 34 8 15 26 32 38 34 57 95 99 159 250 353 465 347 407 284 227 203 230 489 665 767 570 564 423 442 405 371 242 254 105 188 111 122 267 196 239 202 117 72 65 49 51 42
34 44 0 0 0 0 0 13 19 17 11 28 60 54 43 63 165 186 173 212 265 355 371 194 254 219 309 383 482 651 736 779 699 558 326 411 308 232 132 74 297 229 50 72 213 206 165 155 67 60 53 33 49 24
3 0 0 0 0 0 0 0 1 42 46 51 67 64 61 164 323 251 172 197 249 295 216 198 218 506 456 438 490 536 425 351 301 142 68 150 160 124 123 270 161 310 125 60 144 11 111 33 26 33 14 3 16 29
0 0 0 0 49 49 40 3 40 40 58 71 78 84 122 417 394 194 139 180 251 146 126 106 226 402 610 588 362 353 345 187 133 22 16 8 37 68 61 28 12 182 44 2 77 6 43 112 122 84 28 53 44 12
0 0 19 0 62 99 80 90 111 114 120 173 171 152 314 419 357 161 104 105 132 99 183 187 196 337 323 331 226 147 72 44 13 6 6 10 55 35 42 3 60 41 14 75 97 85 64 65 54 4 5 52 16 47
0 6 106 86 58 42 102 188 180 185 162 225 161 159 166 143 113 28 82 102 141 231 124 106 157 56 11 10 26 18 18 25 26 19 54 60 21 1 16 0 7 17 3 96 121 57 5 5 10 10 45 48 67 40
5 86 62 47 57 65 93 144 143 94 143 116 121 74 84 92 13 16 35 35 24 2 0 1 2 11 32 25 38 63 74 71 75 68 12 0 0 0 71 116 99 144 100 34 20 3 15 25 10 46 38 39 29 23
37 20 27 0 45 48 34 44 56 49 58 53 39 32 59 0 13 3 2 0 10 19 17 20 29 44 60 55 74 2 4 3 0 0 5 0 0 8 105 146 83 44 38 45 49 53 59 46 49 38 51 25 19 21
0 19 4 45 40 31 54 21 6 5 10 8 9 15 1 12 1 0 12 28 30 19 26 117 173 59 67 59 5 3 14 1 7 7 2 2 3 1 5 18 41 44 54 27 41 40 40 51 20 26 33 18 1 17
0 29 81 60 60 47 33 27 15 10 2 5 12 14 5 0 10 19 45 55 85 145 143 131 111 72 41 8 1 2 18 109 67 24 25 18 34 36 38 38 84 53 58 42 51 48 32 43 36 39 37 52 38 35
22 47 12 31 31 22 15 13 6 7 7 13 9 14 0 17 36 48 81 103 85 51 86 60 43 0 0 0 80 108 95 119 71 60 71 65 59 60 59 65 36 0 13 33 34 45 45 52 50 24 42 54 37 48
27 21 15 19 20 15 23 24 2 10 14 16 27 20 40 47 44 45 51 69 28 80 0 0 0 37 72 72 94 51 43 55 55 47 71 41 60 44 84 73 8 14 38 26 0 0 0 20 27 20 49 56 63 60
38 31 3 0 0 2 10 12 56 47 42 6 0 0 0 0 0 15 0 43 62 0 60 47 47 58 59 60 72 73 79 73 80 49 32 82 55 61 70 31 40 38 41 44 48 15 3 1 9 7 17 55 57 93
0 0 0 0 0 0 47 42 25 17 14 0 0 0 0 0 0 12 0 0 30 42 49 75 42 53 46 74 38 5 18 67 31 20 37 46 35 28 43 53 56 59 58 60 59 69 77 56 62 73 58 63 72 37
0 0 0 0 0 0 3 0 0 0 0 0 4 0 0 0 0 67 70 107 69 97 65 5 10 35 68 57 62 84 10 51 28 56 46 34 41 55 61 61 54 54 60 51 73 69 67 86 62 73 78 65 41 31
0 0 0 0 0 0 0 0 0 0 0 9 0 6 8 11 30 58 74 111 126 89 70 98 92 70 97 109 97 53 26 32 0 0 2 16 21 15 30 61 81 68 71 67 68 65 52 37 32 31 17 21 19 13

GFSWCAN_con_mucape_048.txt.gz
CAPE
7 1 1 0 1 0 0 0 0 0 0 0 0 0 0 0 0 0 0 0 0 0 0 0 0 0 0 0 0 0 43 13 21 69 11 15 28 66 112 297 560 511 662 458 701 582 485 1585 209 191 128 133 626 973
6 0 0 0 1 0 0 0 0 0 0 0 0 0 0 0 0 0 0 0 0 0 0 0 0 0 0 0 0 0 1 121 62 247 268 311 111 347 525 344 426 386 1056 321 918 892 820 1453 1974 2606 2276 2476 2034 1784
3 1 0 0 0 0 0 0 0 0 0 0 0 0 0 0 0 0 0 0 0 0 0 0 0 0 0 0 0 0 1 9 19 6 99 101 564 248 276 95 308 603 130 24 441 1475 1052 827 2117 2013 2176 1841 1344 1407
0 0 0 0 0 0 0 0 0 0 0 0 0 0 0 0 0 0 0 0 0 0 0 1 0 0 0 0 0 0 0 0 4 0 4 54 109 89 70 19 8 103 221 711 1294 1444 979 1965 1791 2220 2177 2191 1143 1174
1 0 0 0 0 0 0 0 0 0 0 0 0 0 0 0 0 0 0 0 0 0 0 0 0 0 0 0 0 0 0 0 0 0 0 5 57 2 0 70 46 197 353 548 1129 1548 1823 2298 2364 1900 1861 1577 1428 1544
2 0 1 0 0 0 0 0 0 0 0 0 0 0 0 0 0 0 0 0 0 0 0 0 0 0 0 0 0 0 0 0 0 0 29 9 56 0 0 18 38 116 95 265 625 1561 2094 2017 1950 1699 1731 1724 1712 1779
4 0 0 0 5 0 0 0 0 0 0 0 0 0 0 0 0 0 0 0 0 0 0 0 0 0 0 0 0 0 0 0 0 0 0 6 0 0 0 10 290 209 8 206 306 1108 1251 1298 1942 1636 1596 1322 1205 976
0 0 0 18 0 0 0 0 0 0 0 0 0 0 0 0 0 0 0 0 0 0 0 0 13 6 0 0 0 0 0 0 0 0 0 5 0 0 0 0 22 19 3 216 155 248 886 1772 1098 1066 750 684 635 739
0 0 0 0 0 0 0 0 0 0 0 0 0 0 0 0 0 1 0 0 0 0 0 0 1 75 9 0 29 41 21 5 7 0 0 0 12 0 1 23 0 266 426 342 317 486 298 713 1103 284 137 225 205 56
0 0 0 0 0 0 0 0 0 0 0 0 0 0 0 0 0 0 0 0 0 0 0 0 0 25 110 23 8 20 25 31 4 13 20 1 3 0 0 0 71 40 40 119 577 871 360 425 538 102 141 129 3 64
23 0 0 0 0 0 0 0 0 0 0 0 0 17 1 0 0 0 4 0 0 0 0 0 0 1 66 41 243 90 95 124 195 80 33 31 29 7 297 372 103 54 34 67 265 592 463 744 494 305 130 220 81 101
48 13 0 0 0 0 0 0 0 0 0 0 0 0 0 0 1 0 0 0 0 0 0 0 0 0 140 75 240 243 45 90 99 28 404 308 1206 597 343 159 84 71 97 169 182 212 191 213 135 250 204 218 192 162
24 8 0 0 0 0 0 0 0 0 0 0 0 0 0 0 0 0 0 0 0 0 1 0 0 0 2 1 21 277 330 119 303 264 336 616 1043 745 431 209 68 9 19 34 24 15 16 14 27 38 106 99 93 108
4 1 0 0 0 0 0 0 0 0 0 0 0 0 0 0 0 0 0 11 41 19 7 8 32 0 5 50 39 42 107 226 223 0 2 617 877 634 491 323 236 223 121 43 31 23 21 32 32 23 56 77 100 101
0 0 0 0 0 0 0 0 0 0 0 0 0 0 0 4 0 1 75 104 56 61 109 52 142 30 70 59 203 207 215 151 203 327 535 842 1181 647 514 434 303 452 318 286 218 65 85 84 76 86 119 77 61 47
0 1 0 0 0 0 0 0 0 1 2 0 0 0 2 1 12 15 7 35 18 48 43 95 92 52 129 141 49 123 45 158 365 560 556 800 573 534 444 470 400 494 285 193 146 127 111 103 100 59 70 130 30 5
0 0 0 0 32 0 0 0 0 0 0 0 0 5 9 19 26 39 67 111 92 192 144 125 105 135 74 83 140 184 245 577 394 364 258 222 617 552 377 393 336 221 198 219 78 105 117 220 158 161 169 127 80 56
4 85 1 0 0 0 4 0 0 0 0 0 11 8 25 59 46 73 81 178 155 174 206 185 349 269 162 84 273 2 7 831 946 547 1016 1015 570 471 359 252 194 232 227 170 318 212 329 233 95 68 110 82 132 31
24 50 0 0 6 30 2 18 37 0 0 0 27 40 26 22 66 53 81 121 132 284 311 281 129 199 291 407 383 810 682 688 629 669 548 715 455 286 203 181 214 396 300 228 138 320 542 201 73 56 25 58 45 20
0 0 0 0 4 29 5 16 1 54 25 25 45 44 42 41 71 66 94 136 100 158 121 133 153 418 153 0 272 409 394 278 85 70 617 241 455 134 308 192 186 366 448 204 251 3 250 53 172 55 20 4 33 14
0 0 0 0 22 34 65 0 12 29 89 53 48 80 59 65 102 271 162 114 107 57 158 100 258 99 584 455 312 274 524 290 172 83 46 7 3 6 36 121 162 234 156 95 226 33 117 105 117 66 46 43 40 45
0 0 0 0 14 62 74 59 78 78 51 74 65 87 160 251 296 259 169 115 115 139 233 366 472 432 481 627 542 407 218 100 32 1 4 6 18 35 117 24 70 36 72 180 242 124 85 70 24 5 25 21 13 47
0 0 30 19 44 41 31 68 69 81 71 77 122 70 223 254 267 292 110 75 95 406 348 470 544 394 192 59 18 78 64 55 23 30 110 59 53 46 80 38 4 31 68 63 308 64 1 4 8 2 35 44 39 38
0 88 56 36 61 53 82 107 176 136 194 165 154 81 65 133 88 77 92 55 110 171 47 182 7 0 93 284 65 291 147 117 163 144 80 39 11 0 0 28 70 140 79 39 0 1 9 34 9 33 55 40 36 31
39 1 4 0 60 41 28 60 77 43 74 126 77 75 57 36 62 192 217 75 33 72 82 94 17 22 49 196 86 35 18 21 57 36 0 0 0 0 26 135 122 104 74 35 27 23 33 54 43 30 32 30 5 23
0 11 0 46 65 40 42 34 16 30 15 32 32 51 6 43 33 0 41 146 67 11 8 216 333 370 168 58 68 10 65 0 5 3 11 17 19 64 42 25 35 60 74 57 36 40 52 40 17 32 29 25 3 15
1 69 83 70 51 72 41 42 39 28 19 18 38 41 22 7 1 31 104 161 282 195 201 131 121 268 93 75 43 0 47 44 133 28 37 39 58 30 37 31 53 49 74 25 23 19 23 25 28 29 35 45 46 34
5 52 36 29 22 32 19 26 20 15 12 19 14 20 21 18 29 204 110 36 34 32 55 44 33 28 56 12 1 31 51 65 97 86 20 40 69 37 47 60 68 13 20 20 35 44 30 31 41 47 25 29 37 39
19 18 23 15 22 12 20 17 20 23 26 32 30 26 65 60 36 35 25 35 37 92 73 52 0 0 0 21 44 29 78 91 50 57 52 42 54 29 35 42 1 0 1 0 0 0 0 5 27 12 11 27 56 62
23 8 14 25 11 8 21 22 8 56 49 15 20 21 14 14 24 37 43 35 65 58 29 6 22 16 37 68 64 72 60 74 89 65 96 61 67 66 71 76 68 51 54 54 43 17 4 3 7 17 18 49 46 92
32 15 10 13 12 14 66 78 57 49 20 13 0 0 0 6 7 9 48 58 40 57 27 29 52 78 67 61 35 33 25 48 57 39 54 20 27 55 81 64 59 67 63 59 64 62 57 46 60 60 59 43 95 49
0 0 0 0 0 0 40 0 0 0 0 0 0 0 0 0 0 2 4 2 24 48 20 7 92 61 43 40 40 52 20 19 72 89 65 80 56 94 68 54 63 86 80 90 71 87 86 100 101 74 92 73 55 52
0 0 0 0 0 0 0 0 0 11 0 0 0 1 3 7 6 16 25 24 62 80 65 41 23 45 73 59 79 55 27 6 18 4 0 0 0 9 28 38 56 84 48 63 64 79 49 28 44 32 20 15 13 14